FW7316 Weather Reports


time (UTC)temp
F
wind
direction
speed
knots
gust
knots
rain 1hr
in
rain 24hr
in
rain mn
in
humidity
%
barometer
mb
20210518200402 64 201 7.8 15.6 0.00 0.01 0.01 39 1010.7
20210518200300 64 190 6.1 15.6 0.00 0.01 0.01 39 1010.7
20210518200203 64 201 6.1 15.6 0.00 0.01 0.01 38 1010.7
20210518200114 64 202 5.2 15.6 0.00 0.01 0.01 38 1010.7
20210518200004 64 187 4.3 15.6 0.00 0.01 0.01 39 1010.7
20210518195902 64 201 7.0 15.6 0.00 0.01 0.01 39 1010.7
20210518195802 64 200 5.2 15.6 0.00 0.01 0.01 38 1010.8
20210518195702 64 203 8.7 15.6 0.00 0.01 0.01 38 1010.8
20210518195604 64 204 11.3 15.6 0.00 0.01 0.01 38 1010.9
20210518195502 64 225 6.1 15.6 0.00 0.01 0.01 37 1010.8
20210518195401 64 219 11.3 15.6 0.00 0.01 0.01 36 1010.7
20210518195324 64 229 7.8 14.8 0.00 0.01 0.01 36 1010.7
20210518195201 65 210 7.0 14.8 0.00 0.01 0.01 37 1010.8
20210518195102 65 221 13.9 14.8 0.00 0.01 0.01 37 1010.8
20210518195007 65 206 12.2 14.8 0.00 0.01 0.01 36 1010.8
20210518194902 65 221 7.8 14.8 0.00 0.01 0.01 36 1010.8
20210518194802 65 233 13.0 14.8 0.00 0.01 0.01 36 1010.7
20210518194703 65 237 6.1 14.8 0.00 0.01 0.01 36 1010.7
20210518194601 65 229 7.0 14.8 0.00 0.01 0.01 36 1010.7
20210518194501 65 244 8.7 14.8 0.00 0.01 0.01 35 1010.7
20210518194404 65 244 5.2 14.8 0.00 0.01 0.01 35 1010.7
20210518194302 65 225 6.1 15.6 0.00 0.01 0.01 35 1010.6
20210518194201 65 220 13.0 15.6 0.00 0.01 0.01 35 1010.6
20210518194105 65 231 7.0 15.6 0.00 0.01 0.01 35 1010.6
20210518194003 65 243 10.4 15.6 0.00 0.01 0.01 35 1010.5
20210518193902 65 227 8.7 17.4 0.00 0.01 0.01 35 1010.5
20210518193807 65 209 8.7 17.4 0.00 0.01 0.01 35 1010.5
20210518193719 65 213 8.7 17.4 0.00 0.01 0.01 36 1010.5
20210518193601 65 214 9.6 17.4 0.00 0.01 0.01 35 1010.4
20210518193504 65 192 6.1 17.4 0.00 0.01 0.01 35 1010.3
20210518193401 65 207 9.6 17.4 0.00 0.01 0.01 35 1010.3
20210518193301 65 225 11.3 17.4 0.00 0.01 0.01 35 1010.3
20210518193203 65 225 10.4 17.4 0.00 0.01 0.01 34 1010.3
20210518193102 65 225 11.3 17.4 0.00 0.01 0.01 34 1010.3
20210518193002 65 215 10.4 21.7 0.00 0.01 0.01 34 1010.2
20210518192903 65 228 13.9 21.7 0.00 0.01 0.01 33 1010.3
20210518192800 65 219 13.9 21.7 0.00 0.01 0.01 33 1010.3
20210518192702 65 229 12.2 21.7 0.00 0.01 0.01 33 1010.2
20210518192604 65 225 10.4 21.7 0.00 0.01 0.01 33 1010.2
20210518192501 65 227 13.9 21.7 0.00 0.01 0.01 33 1010.2
20210518192402 65 203 9.6 21.7 0.00 0.01 0.01 33 1010.1
20210518192306 65 213 11.3 21.7 0.00 0.01 0.01 32 1010.1
20210518192202 65 207 7.0 21.7 0.00 0.01 0.01 33 1010.2
20210518192102 65 219 14.8 21.7 0.00 0.01 0.01 33 1010.3
20210518192008 65 229 11.3 22.6 0.00 0.01 0.01 32 1010.3
20210518191900 65 225 11.3 20.0 0.00 0.01 0.01 32 1010.2
20210518191801 65 221 12.2 20.0 0.00 0.01 0.01 32 1010.2
20210518191703 65 217 11.3 20.0 0.00 0.01 0.01 32 1010.1
20210518191602 65 199 13.9 20.0 0.00 0.01 0.01 32 1010.1
20210518191502 65 220 13.9 20.0 0.00 0.01 0.01 32 1010.1
20210518191407 66 227 10.4 20.0 0.00 0.01 0.01 32 1010.1
20210518191302 66 217 12.2 20.0 0.00 0.01 0.01 32 1010.1
20210518191200 66 360 16.5 20.9 0.00 0.01 0.01 32 1010.1
20210518191103 66 190 15.6 20.9 0.00 0.01 0.01 32 1010.1
20210518191005 66 205 9.6 20.9 0.00 0.01 0.01 31 1010.1
20210518190903 66 194 11.3 20.9 0.00 0.01 0.01 31 1010.1
20210518190804 66 198 7.0 20.9 0.00 0.01 0.01 31 1010.1
20210518190720 66 197 14.8 20.9 0.00 0.01 0.01 31 1010.1
20210518190600 66 198 16.5 20.0 0.00 0.01 0.01 31 1010.1
20210518190525 66 175 7.8 20.0 0.00 0.01 0.01 31 1010.1
20210518190401 66 205 14.8 20.0 0.00 0.01 0.01 31 1010.2
20210518190302 66 186 11.3 20.0 0.00 0.01 0.01 31 1010.2
20210518190204 66 213 13.9 20.0 0.00 0.01 0.01 30 1010.2
20210518190115 66 198 14.8 20.0 0.00 0.01 0.01 30 1010.1
20210518190005 66 207 11.3 20.0 0.00 0.01 0.01 30 1010.1
20210518185904 66 182 14.8 20.0 0.00 0.01 0.01 29 1010.1
20210518185801 66 190 11.3 20.0 0.00 0.01 0.01 29 1010.1
20210518185702 66 200 8.7 21.7 0.00 0.01 0.01 29 1010.0
20210518185603 66 195 12.2 26.9 0.00 0.01 0.01 29 1010.1
20210518185501 66 196 11.3 26.9 0.00 0.01 0.01 29 1010.1
20210518185401 66 192 10.4 26.9 0.00 0.01 0.01 29 1010.0
20210518185306 66 187 9.6 26.9 0.00 0.01 0.01 29 1010.0
20210518185201 66 187 11.3 26.9 0.00 0.01 0.01 28 1010.0
20210518185102 66 187 19.1 26.9 0.00 0.01 0.01 28 1010.0
20210518185008 66 176 15.6 26.9 0.00 0.01 0.01 28 1010.0
20210518184901 66 213 14.8 26.9 0.00 0.01 0.01 28 1009.9
20210518184802 66 185 13.9 26.9 0.00 0.01 0.01 28 1009.9
20210518184724 66 193 20.0 26.9 0.00 0.01 0.01 28 1009.9
20210518184601 66 207 19.1 27.8 0.00 0.01 0.01 28 1009.8
20210518184502 66 196 17.4 27.8 0.00 0.01 0.01 28 1009.8
20210518184404 66 185 15.6 27.8 0.00 0.01 0.01 27 1009.8
20210518184301 66 168 11.3 28.7 0.00 0.01 0.01 27 1009.8
20210518184200 66 194 16.5 28.7 0.00 0.01 0.01 27 1009.7
20210518184105 66 207 19.1 28.7 0.00 0.01 0.01 27 1009.8
20210518184003 66 217 14.8 28.7 0.00 0.01 0.01 27 1009.7
20210518183902 66 187 20.0 28.7 0.00 0.01 0.01 27 1009.7
20210518183803 67 222 23.5 28.7 0.00 0.01 0.01 27 1009.7
20210518183701 67 200 18.2 28.7 0.00 0.01 0.01 28 1009.6
20210518183602 67 207 19.1 28.7 0.00 0.01 0.01 28 1009.6
20210518183504 67 207 13.9 28.7 0.00 0.01 0.01 28 1009.6
20210518183401 67 184 13.9 28.7 0.00 0.01 0.01 27 1009.6
20210518183302 67 215 26.9 29.5 0.00 0.01 0.01 27 1009.5
20210518183203 67 220 18.2 27.8 0.00 0.01 0.01 29 1009.5
20210518183103 67 196 16.5 26.9 0.00 0.01 0.01 29 1009.4
20210518183001 67 207 14.8 26.9 0.00 0.01 0.01 29 1009.4
20210518182903 67 207 15.6 26.9 0.00 0.01 0.01 28 1009.4
20210518182801 67 211 19.1 26.9 0.00 0.01 0.01 28 1009.5
20210518182702 67 198 13.9 26.9 0.00 0.01 0.01 29 1009.3
20210518182604 67 211 15.6 28.7 0.00 0.01 0.01 29 1009.4
20210518182502 67 217 26.1 36.5 0.00 0.01 0.01 29 1009.4
20210518182402 67 199 14.8 36.5 0.00 0.01 0.01 29 1009.3
20210518182305 67 208 23.5 36.5 0.00 0.01 0.01 30 1009.4
20210518182201 67 225 16.5 36.5 0.00 0.01 0.01 30 1009.4
20210518182101 67 216 14.8 36.5 0.00 0.01 0.01 31 1009.4
20210518182006 67 203 12.2 36.5 0.00 0.01 0.01 31 1009.4
20210518181902 67 204 17.4 36.5 0.00 0.01 0.01 31 1009.4
20210518181802 67 189 18.2 36.5 0.00 0.01 0.01 32 1009.3
20210518181705 67 202 21.7 36.5 0.00 0.01 0.01 31 1009.2
20210518181601 67 187 14.8 36.5 0.00 0.01 0.01 33 1009.3
20210518181502 67 236 10.4 29.5 0.00 0.01 0.01 34 1009.2
20210518181404 67 163 13.0 29.5 0.00 0.01 0.01 34 1009.3
20210518181301 67 207 15.6 29.5 0.00 0.01 0.01 34 1009.3
20210518181201 67 213 18.2 27.8 0.00 0.01 0.01 34 1009.3
20210518181104 67 180 17.4 27.8 0.00 0.01 0.01 35 1009.2
20210518181002 67 182 13.0 27.8 0.00 0.01 0.01 35 1009.1
20210518180901 67 221 24.3 27.8 0.00 0.01 0.01 35 1009.2
20210518180804 67 212 15.6 27.8 0.00 0.01 0.01 35 1009.2
20210518180700 67 191 22.6 24.3 0.00 0.01 0.01 35 1009.1
20210518180601 67 186 13.9 24.3 0.00 0.01 0.01 35 1009.3
20210518180504 67 169 9.6 24.3 0.00 0.01 0.01 35 1009.3
20210518180401 67 195 18.2 24.3 0.00 0.01 0.01 36 1009.2
20210518180300 67 173 13.0 24.3 0.00 0.01 0.01 36 1009.3
20210518180204 67 210 11.3 24.3 0.00 0.01 0.01 37 1009.2
20210518180113 67 186 13.0 21.7 0.00 0.01 0.01 38 1009.3
20210518180004 67 192 14.8 21.7 0.00 0.01 0.01 38 1009.3
20210518175903 67 193 9.6 24.3 0.00 0.01 0.01 38 1009.2
20210518175802 67 219 17.4 24.3 0.00 0.01 0.01 38 1009.3
20210518175702 67 215 11.3 24.3 0.00 0.01 0.01 39 1009.3
20210518175603 67 214 14.8 24.3 0.00 0.01 0.01 38 1009.3
20210518175502 67 202 10.4 24.3 0.00 0.01 0.01 39 1009.4
20210518175400 67 215 17.4 24.3 0.00 0.01 0.01 39 1009.4
20210518175305 67 212 10.4 24.3 0.00 0.01 0.01 39 1009.3
20210518175202 67 209 11.3 24.3 0.00 0.01 0.01 39 1009.4
20210518175102 67 221 17.4 24.3 0.00 0.01 0.01 39 1009.6
20210518175009 67 201 14.8 24.3 0.00 0.01 0.01 40 1009.6
20210518174903 67 207 19.1 24.3 0.00 0.01 0.01 40 1009.5
20210518174802 67 223 15.6 22.6 0.00 0.01 0.01 40 1009.5
20210518174703 67 227 20.9 20.9 0.00 0.01 0.01 40 1009.4
20210518174601 67 232 7.0 14.8 0.00 0.01 0.01 41 1009.5
20210518174502 67 232 13.9 18.2 0.00 0.01 0.01 42 1009.6
20210518174403 67 184 10.4 18.2 0.00 0.01 0.01 41 1009.6
20210518174301 67 204 6.1 18.2 0.00 0.01 0.01 41 1009.5
20210518174202 67 215 6.1 18.2 0.00 0.01 0.01 41 1009.5
20210518174107 67 223 5.2 18.2 0.00 0.01 0.01 41 1009.5
20210518174003 67 203 5.2 18.2 0.00 0.01 0.01 41 1009.6
20210518173900 67 230 8.7 18.2 0.00 0.01 0.01 40 1009.6
20210518173823 67 209 6.1 18.2 0.00 0.01 0.01 40 1009.6
20210518173702 67 238 9.6 18.2 0.00 0.01 0.01 41 1009.8
20210518173601 67 205 7.8 18.2 0.00 0.01 0.01 41 1009.8
20210518173504 67 237 15.6 17.4 0.00 0.01 0.01 41 1009.8
20210518173402 67 219 9.6 17.4 0.00 0.01 0.01 40 1009.8
20210518173302 67 215 13.9 17.4 0.00 0.01 0.01 40 1009.8
20210518173203 67 203 6.1 17.4 0.00 0.01 0.01 40 1009.9
20210518173102 67 196 7.0 16.5 0.00 0.01 0.01 40 1009.9
20210518173002 67 211 7.0 16.5 0.00 0.01 0.01 40 1009.9
20210518172921 67 222 8.7 16.5 0.00 0.01 0.01 40 1009.9
20210518172802 67 205 5.2 16.5 0.00 0.01 0.01 40 1009.8
20210518172702 67 207 8.7 16.5 0.00 0.01 0.01 40 1009.8
20210518172605 67 225 13.9 15.6 0.00 0.01 0.01 40 1009.8
20210518172502 68 215 10.4 15.6 0.00 0.01 0.01 40 1009.7
20210518172402 68 248 9.6 15.6 0.00 0.01 0.01 39 1009.8
20210518172306 68 215 9.6 15.6 0.00 0.01 0.01 39 1009.7
20210518172200 68 198 13.0 16.5 0.00 0.01 0.01 39 1009.7
20210518172102 68 186 7.0 16.5 0.00 0.01 0.01 38 1009.6
20210518172007 68 170 7.0 16.5 0.00 0.01 0.01 38 1009.6
20210518171900 68 186 8.7 16.5 0.00 0.01 0.01 39 1009.6
20210518171801 68 182 9.6 16.5 0.00 0.01 0.01 38 1009.6
20210518171704 68 189 13.9 16.5 0.00 0.01 0.01 39 1009.5
20210518171602 68 199 8.7 16.5 0.00 0.01 0.01 39 1009.6
20210518171501 68 192 6.1 16.5 0.00 0.01 0.01 38 1009.6
20210518171404 68 194 8.7 16.5 0.00 0.01 0.01 38 1009.6
20210518171301 68 197 13.9 16.5 0.00 0.01 0.01 38 1009.7
20210518171201 68 199 16.5 19.1 0.00 0.01 0.01 39 1009.7
20210518171104 68 209 12.2 20.9 0.00 0.01 0.01 40 1009.7
20210518171027 68 196 8.7 26.9 0.00 0.01 0.01 39 1009.7
20210518170901 68 213 6.1 26.9 0.00 0.01 0.01 39 1009.5
20210518170802 68 221 12.2 26.9 0.00 0.01 0.01 39 1009.5
20210518170702 68 225 12.2 26.9 0.00 0.01 0.01 40 1009.5
20210518170602 68 174 5.2 26.9 0.00 0.01 0.01 40 1009.4
20210518170507 68 186 4.3 26.9 0.00 0.01 0.01 40 1009.4
20210518170402 68 214 13.0 26.9 0.00 0.01 0.01 42 1009.3
20210518170300 68 219 13.9 26.9 0.00 0.01 0.01 42 1009.3
20210518170207 68 224 14.8 26.9 0.00 0.01 0.01 42 1009.3
20210518170134 68 211 13.9 26.1 0.00 0.01 0.01 41 1009.3
20210518170010 69 234 12.2 26.1 0.00 0.01 0.01 41 1009.3
20210518165904 69 217 20.9 23.5 0.00 0.02 0.01 41 1009.4
20210518165820 69 213 13.0 23.5 0.00 0.02 0.01 41 1009.3
20210518165702 69 242 15.6 23.5 0.00 0.02 0.01 41 1009.3
20210518165603 69 220 10.4 23.5 0.00 0.02 0.01 41 1009.4
20210518165501 69 204 12.2 23.5 0.00 0.02 0.01 42 1009.3
20210518165402 69 174 20.0 23.5 0.00 0.02 0.01 41 1009.3
20210518165305 69 183 13.9 23.5 0.00 0.02 0.01 41 1009.3
20210518165221 69 214 8.7 23.5 0.00 0.02 0.01 41 1009.3
20210518165100 69 175 21.7 24.3 0.00 0.02 0.01 42 1009.3
20210518165007 69 184 15.6 22.6 0.00 0.02 0.01 42 1009.3
20210518164902 69 198 12.2 21.7 0.00 0.02 0.01 41 1009.3
20210518164800 69 187 15.6 22.6 0.00 0.02 0.01 41 1009.3
20210518164702 69 191 8.7 22.6 0.00 0.02 0.01 42 1009.4
20210518164602 69 225 10.4 22.6 0.00 0.02 0.01 43 1009.4
20210518164502 69 228 15.6 22.6 0.00 0.02 0.01 43 1009.4
20210518164403 69 217 15.6 22.6 0.00 0.02 0.01 42 1009.3
20210518164302 69 209 14.8 22.6 0.00 0.02 0.01 42 1009.2
20210518164201 69 207 14.8 22.6 0.00 0.02 0.01 42 1009.2
20210518164103 69 222 8.7 22.6 0.00 0.02 0.01 42 1009.2
20210518164005 70 234 15.6 22.6 0.00 0.02 0.01 43 1009.3
20210518163900 70 232 14.8 22.6 0.00 0.02 0.01 42 1009.3
20210518163803 70 228 13.0 19.1 0.00 0.02 0.01 41 1009.2
20210518163702 70 211 9.6 19.1 0.00 0.02 0.01 41 1009.3
20210518163601 70 217 9.6 15.6 0.00 0.02 0.01 42 1009.4
20210518163507 70 213 7.0 21.7 0.00 0.02 0.01 42 1009.4
20210518163401 70 202 11.3 21.7 0.00 0.02 0.01 42 1009.3
20210518163301 70 215 7.0 21.7 0.00 0.02 0.01 42 1009.3
20210518163204 70 169 6.1 24.3 0.00 0.02 0.01 42 1009.3
20210518163102 70 200 6.1 24.3 0.00 0.02 0.01 44 1009.3
20210518163003 70 196 6.1 24.3 0.00 0.02 0.01 44 1009.3
20210518162904 70 157 1.7 24.3 0.00 0.02 0.01 43 1009.3
20210518162801 70 227 11.3 24.3 0.00 0.02 0.01 44 1009.3
20210518162700 70 219 11.3 24.3 0.00 0.02 0.01 44 1009.3
20210518162606 70 225 13.0 24.3 0.00 0.02 0.01 43 1009.2
20210518162502 70 213 12.2 24.3 0.00 0.02 0.01 44 1009.2
20210518162402 70 221 13.0 24.3 0.00 0.02 0.01 44 1009.3
20210518162305 70 194 10.4 24.3 0.00 0.02 0.01 43 1009.3
20210518162200 70 221 17.4 24.3 0.00 0.02 0.01 43 1009.2
20210518162100 71 216 13.0 23.5 0.00 0.02 0.01 42 1009.3
20210518162007 71 215 20.0 23.5 0.00 0.02 0.01 43 1009.3
20210518161902 71 182 6.1 23.5 0.00 0.02 0.01 42 1009.4
20210518161821 71 211 12.2 23.5 0.00 0.02 0.01 42 1009.4
20210518161702 71 234 15.6 23.5 0.00 0.02 0.01 44 1009.4
20210518161601 71 245 13.0 23.5 0.00 0.02 0.01 44 1009.4
20210518161502 71 221 10.4 23.5 0.00 0.02 0.01 44 1009.3
20210518161402 71 196 14.8 23.5 0.00 0.02 0.01 43 1009.4
20210518161302 71 159 19.1 19.1 0.00 0.02 0.01 44 1009.4
20210518161201 71 225 8.7 19.1 0.00 0.02 0.01 44 1009.5
20210518161103 71 213 7.8 19.1 0.00 0.02 0.01 44 1009.5
20210518161001 71 223 11.3 19.1 0.00 0.02 0.01 44 1009.5
20210518160900 71 197 12.2 19.1 0.00 0.02 0.01 43 1009.5
20210518160824 71 228 12.2 19.1 0.00 0.02 0.01 43 1009.5
20210518160702 71 237 11.3 19.1 0.00 0.02 0.01 42 1009.6
20210518160621 72 209 18.2 19.1 0.00 0.02 0.01 43 1009.6
20210518160507 72 236 14.8 19.1 0.00 0.02 0.01 42 1009.6
20210518160400 72 248 7.8 19.1 0.00 0.02 0.01 43 1009.7
20210518160302 72 206 10.4 19.1 0.00 0.02 0.01 43 1009.7
20210518160203 72 213 11.3 21.7 0.00 0.02 0.01 43 1009.7
20210518160113 71 217 10.4 21.7 0.00 0.02 0.01 43 1009.7
20210518160006 71 220 11.3 21.7 0.00 0.02 0.01 43 1009.8
20210518155922 71 221 13.9 21.7 0.00 0.02 0.01 43 1009.8
20210518155800 71 207 12.2 25.2 0.00 0.02 0.01 44 1009.8
20210518155710 71 215 8.7 25.2 0.00 0.02 0.01 44 1009.8
20210518155603 71 214 7.0 25.2 0.00 0.02 0.01 44 1009.9
20210518155502 71 218 13.0 25.2 0.00 0.02 0.01 44 1009.9
20210518155402 71 220 11.3 25.2 0.00 0.02 0.01 44 1009.9
20210518155306 71 202 12.2 25.2 0.00 0.02 0.01 44 1009.8
20210518155202 71 223 21.7 25.2 0.00 0.02 0.01 44 1009.8
20210518155102 71 213 9.6 25.2 0.00 0.02 0.01 44 1009.8
20210518155007 71 202 7.0 25.2 0.00 0.02 0.01 43 1009.8
20210518154900 72 222 17.4 25.2 0.00 0.02 0.01 44 1009.7
20210518154800 72 240 18.2 24.3 0.00 0.02 0.01 44 1009.7
20210518154703 72 215 19.1 24.3 0.00 0.02 0.01 44 1009.7
20210518154601 72 231 14.8 20.0 0.00 0.02 0.01 44 1009.7
20210518154503 72 252 13.9 20.0 0.00 0.02 0.01 44 1009.7
20210518154404 72 221 12.2 20.0 0.00 0.02 0.01 44 1009.7
20210518154300 72 212 10.4 20.0 0.00 0.02 0.01 44 1009.7
20210518154224 72 229 7.0 20.0 0.00 0.02 0.01 44 1009.7
20210518154102 72 215 14.8 20.0 0.00 0.02 0.01 43 1009.7
20210518154003 72 227 16.5 22.6 0.00 0.02 0.01 44 1009.7
20210518153902 72 225 13.0 22.6 0.00 0.02 0.01 44 1009.7
20210518153804 72 232 7.8 22.6 0.00 0.02 0.01 44 1009.7
20210518153702 72 226 12.2 22.6 0.00 0.02 0.01 43 1009.7
20210518153601 72 229 14.8 22.6 0.00 0.02 0.01 44 1009.7
20210518153504 72 242 11.3 22.6 0.00 0.02 0.01 43 1009.7
20210518153401 73 218 11.3 23.5 0.00 0.02 0.01 44 1009.7
20210518153302 73 238 14.8 23.5 0.00 0.02 0.01 44 1009.7
20210518153204 73 241 16.5 23.5 0.00 0.02 0.01 44 1009.6
20210518153100 73 223 16.5 23.5 0.00 0.02 0.01 43 1009.7
20210518153002 73 238 15.6 23.5 0.00 0.02 0.01 42 1009.7
20210518152903 73 217 15.6 23.5 0.00 0.02 0.01 42 1009.6
20210518152802 74 221 19.1 23.5 0.00 0.02 0.01 42 1009.5
20210518152702 74 211 8.7 23.5 0.00 0.02 0.01 41 1009.6
20210518152604 74 232 9.6 23.5 0.00 0.02 0.01 42 1009.6
20210518152502 74 239 10.4 23.5 0.00 0.02 0.01 42 1009.6
20210518152400 74 225 16.5 23.5 0.00 0.02 0.01 43 1009.6
20210518152305 74 232 13.0 21.7 0.00 0.02 0.01 44 1009.6
20210518152202 74 236 10.4 16.5 0.00 0.02 0.01 46 1009.7
20210518152103 74 225 11.3 15.6 0.00 0.02 0.01 44 1009.6
20210518152007 74 197 14.8 16.5 0.00 0.02 0.01 45 1009.6
20210518151900 74 216 11.3 16.5 0.00 0.02 0.01 44 1009.6
20210518151801 74 221 10.4 16.5 0.00 0.02 0.01 45 1009.6
20210518151703 75 226 12.2 16.5 0.00 0.02 0.01 45 1009.6
20210518151601 74 222 8.7 16.5 0.00 0.02 0.01 44 1009.6
20210518151502 75 227 11.3 18.2 0.00 0.02 0.01 43 1009.6
20210518151404 75 223 13.0 18.2 0.00 0.02 0.01 44 1009.6
20210518151300 74 225 13.0 18.2 0.00 0.02 0.01 44 1009.7
20210518151200 74 257 10.4 18.2 0.00 0.02 0.01 43 1009.7
20210518151104 74 222 10.4 18.2 0.00 0.02 0.01 43 1009.7
20210518151005 74 229 10.4 18.2 0.00 0.02 0.01 43 1009.7
20210518150901 74 242 5.2 18.2 0.00 0.02 0.01 43 1009.7
20210518150804 74 232 14.8 20.0 0.00 0.02 0.01 44 1009.7
20210518150701 74 234 6.1 20.9 0.00 0.02 0.01 44 1009.7
20210518150623 74 210 8.7 20.9 0.00 0.02 0.01 44 1009.7
20210518150503 74 206 9.6 20.9 0.00 0.02 0.01 45 1009.7
20210518150401 74 219 8.7 20.9 0.00 0.02 0.01 44 1009.7
20210518150302 74 219 13.9 20.9 0.00 0.02 0.01 44 1009.7
20210518150200 74 211 7.8 23.5 0.00 0.02 0.01 45 1009.7
20210518150115 73 229 9.6 23.5 0.00 0.02 0.01 44 1009.7
20210518150007 73 224 12.2 23.5 0.00 0.02 0.01 44 1009.7
20210518145901 73 239 8.7 23.5 0.00 0.02 0.01 44 1009.7
20210518145804 73 240 18.2 23.5 0.00 0.02 0.01 45 1009.7
20210518145700 74 236 15.6 23.5 0.00 0.02 0.01 45 1009.8
20210518145600 74 243 10.4 23.5 0.00 0.02 0.01 44 1009.8
20210518145504 74 231 13.9 23.5 0.00 0.02 0.01 43 1009.7
20210518145402 74 240 14.8 23.5 0.00 0.02 0.01 43 1009.8
20210518145300 75 218 12.2 23.5 0.00 0.02 0.01 44 1009.8
20210518145205 75 221 19.1 23.5 0.00 0.02 0.01 46 1009.7
20210518145102 74 223 16.5 23.5 0.00 0.02 0.01 45 1009.7
20210518145003 74 221 19.1 24.3 0.00 0.02 0.01 44 1009.8
20210518144904 74 224 16.5 22.6 0.00 0.02 0.01 44 1009.8
20210518144800 74 229 10.4 21.7 0.00 0.02 0.01 44 1009.8
20210518144702 74 217 9.6 19.1 0.00 0.02 0.01 44 1009.8
20210518144622 74 213 7.8 19.1 0.00 0.02 0.01 43 1009.8
20210518144502 74 201 7.8 19.1 0.00 0.02 0.01 44 1009.8
20210518144402 75 249 13.9 19.1 0.00 0.02 0.01 44 1009.8
20210518144302 75 213 11.3 19.1 0.00 0.02 0.01 45 1009.8
20210518144202 74 232 12.2 19.1 0.00 0.02 0.01 44 1009.8
20210518144101 74 221 13.0 19.1 0.00 0.02 0.01 45 1009.9
20210518144004 74 223 10.4 19.1 0.00 0.02 0.01 47 1009.9
20210518143900 74 220 12.2 20.0 0.00 0.02 0.01 47 1009.9
20210518143802 74 224 13.9 20.0 0.00 0.02 0.01 46 1009.8
20210518143707 74 227 15.6 20.0 0.00 0.02 0.01 46 1009.8
20210518143600 74 238 10.4 20.0 0.00 0.02 0.01 47 1009.8
20210518143503 74 217 7.8 20.0 0.00 0.02 0.01 46 1009.8
20210518143404 74 214 17.4 21.7 0.00 0.02 0.01 46 1009.7
20210518143300 74 217 12.2 21.7 0.00 0.02 0.01 45 1009.8
20210518143201 74 211 9.6 21.7 0.00 0.02 0.01 45 1009.8
20210518143103 74 223 16.5 24.3 0.00 0.02 0.01 45 1009.8
20210518143003 74 225 15.6 24.3 0.00 0.02 0.01 46 1009.9
20210518142901 74 237 12.2 24.3 0.00 0.02 0.01 47 1009.8
20210518142804 74 233 15.6 24.3 0.00 0.02 0.01 46 1009.8
20210518142701 73 234 11.3 24.3 0.00 0.02 0.01 45 1009.9
20210518142600 74 221 14.8 24.3 0.00 0.02 0.01 45 1009.8
20210518142504 74 233 14.8 24.3 0.00 0.02 0.01 45 1009.8
20210518142400 74 231 12.2 24.3 0.00 0.02 0.01 46 1009.8
20210518142305 74 234 11.3 24.3 0.00 0.02 0.01 46 1009.8
20210518142203 74 234 18.2 24.3 0.00 0.02 0.01 44 1009.8
20210518142103 74 216 19.1 24.3 0.00 0.02 0.01 44 1009.9
20210518142003 74 241 11.3 23.5 0.00 0.02 0.01 44 1009.8
20210518141900 74 227 10.4 23.5 0.00 0.02 0.01 46 1009.8
20210518141801 74 215 13.0 23.5 0.00 0.02 0.01 47 1009.8
20210518141704 74 229 13.0 23.5 0.00 0.02 0.01 46 1009.9
20210518141600 74 236 11.3 23.5 0.00 0.02 0.01 46 1009.9
20210518141502 74 227 14.8 23.5 0.00 0.02 0.01 46 1009.8
20210518141402 74 234 8.7 23.5 0.00 0.02 0.01 46 1009.8
20210518141316 74 244 10.4 23.5 0.00 0.02 0.01 47 1009.8
20210518141202 74 245 13.9 23.5 0.00 0.02 0.01 46 1009.9
20210518141105 74 220 16.5 23.5 0.00 0.02 0.01 46 1009.9
20210518141001 74 225 8.7 23.5 0.00 0.02 0.01 46 1010.0
20210518140902 74 229 10.4 23.5 0.00 0.02 0.01 45 1010.0
20210518140804 74 217 15.6 23.5 0.00 0.02 0.01 45 1010.0
20210518140700 75 225 13.9 23.5 0.00 0.02 0.01 46 1010.0
20210518140601 75 235 11.3 23.5 0.00 0.02 0.01 46 1010.1
20210518140504 75 221 14.8 23.5 0.00 0.02 0.01 47 1010.1
20210518140420 75 264 13.0 23.5 0.00 0.02 0.01 46 1010.1
20210518140300 75 229 14.8 23.5 0.00 0.02 0.01 46 1010.1
20210518140225 75 215 17.4 23.5 0.00 0.02 0.01 46 1010.1
20210518140113 74 215 9.6 18.2 0.00 0.02 0.01 46 1010.1
20210518140006 74 250 10.4 18.2 0.00 0.02 0.01 46 1010.1
20210518135904 74 238 12.2 18.2 0.00 0.02 0.01 45 1010.1
20210518135802 74 227 10.4 18.2 0.00 0.02 0.01 45 1010.2
20210518135659 74 243 11.3 18.2 0.00 0.02 0.01 45 1010.2
20210518135602 75 225 10.4 18.2 0.00 0.02 0.01 44 1010.2
20210518135502 75 218 11.3 18.2 0.00 0.02 0.01 45 1010.2
20210518135402 75 211 11.3 17.4 0.00 0.02 0.01 46 1010.2
20210518135305 75 237 12.2 18.2 0.00 0.02 0.01 45 1010.2
20210518135201 75 204 13.0 20.9 0.00 0.02 0.01 44 1010.3
20210518135103 75 142 4.3 22.6 0.00 0.02 0.01 45 1010.3
20210518135004 75 151 10.4 22.6 0.00 0.02 0.01 45 1010.3
20210518134900 75 208 8.7 22.6 0.00 0.02 0.01 45 1010.4
20210518134801 75 213 12.2 22.6 0.00 0.02 0.01 45 1010.4
20210518134702 75 211 13.0 22.6 0.00 0.02 0.01 45 1010.3
20210518134600 75 219 13.9 22.6 0.00 0.02 0.01 45 1010.3
20210518134502 75 234 10.4 22.6 0.00 0.02 0.01 45 1010.2
20210518134404 75 219 14.8 22.6 0.00 0.02 0.01 45 1010.2
20210518134302 75 190 10.4 22.6 0.00 0.02 0.01 44 1010.2
20210518134200 75 246 17.4 22.6 0.00 0.02 0.01 45 1010.4
20210518134102 75 189 13.0 22.6 0.00 0.02 0.01 45 1010.3
20210518134002 74 200 14.8 20.9 0.00 0.02 0.01 45 1010.4
20210518133902 74 228 16.5 20.9 0.00 0.02 0.01 44 1010.4
20210518133803 74 215 10.4 20.9 0.00 0.02 0.01 43 1010.4
20210518133702 75 207 10.4 20.9 0.00 0.02 0.01 44 1010.4
20210518133603 75 214 13.9 21.7 0.00 0.02 0.01 45 1010.4
20210518133504 75 208 19.1 21.7 0.00 0.02 0.01 44 1010.4
20210518133401 75 219 16.5 21.7 0.00 0.02 0.01 44 1010.5
20210518133302 75 200 13.9 21.7 0.00 0.02 0.01 45 1010.4
20210518133202 75 201 9.6 21.7 0.00 0.02 0.01 45 1010.4
20210518133102 75 224 9.6 21.7 0.00 0.02 0.01 45 1010.5
20210518133004 75 216 9.6 21.7 0.00 0.02 0.01 44 1010.5
20210518132904 75 223 17.4 20.0 0.00 0.02 0.01 44 1010.4
20210518132802 75 217 11.3 20.0 0.00 0.02 0.01 44 1010.5
20210518132701 75 222 15.6 20.0 0.00 0.02 0.01 44 1010.5
20210518132603 74 182 5.2 20.0 0.00 0.02 0.01 44 1010.5
20210518132502 74 217 15.6 20.0 0.00 0.02 0.01 44 1010.5
20210518132402 74 214 15.6 19.1 0.00 0.02 0.01 43 1010.5
20210518132305 74 227 7.8 19.1 0.00 0.02 0.01 43 1010.6
20210518132200 74 201 13.0 19.1 0.00 0.02 0.01 44 1010.6
20210518132100 74 228 13.9 19.1 0.00 0.02 0.01 45 1010.6
20210518132009 74 222 11.3 19.1 0.00 0.02 0.01 45 1010.6
20210518131902 74 217 14.8 19.1 0.00 0.02 0.01 44 1010.6
20210518131801 75 244 13.9 19.1 0.00 0.02 0.01 44 1010.7
20210518131704 74 197 6.1 19.1 0.00 0.02 0.01 43 1010.6
20210518131600 74 225 11.3 20.0 0.00 0.02 0.01 44 1010.6
20210518131501 74 224 13.9 20.0 0.00 0.02 0.01 45 1010.6
20210518131403 74 229 8.7 23.5 0.00 0.02 0.01 45 1010.7
20210518131301 74 209 10.4 23.5 0.00 0.02 0.01 45 1010.6
20210518131203 74 243 17.4 23.5 0.00 0.02 0.01 44 1010.7
20210518131104 74 232 19.1 23.5 0.00 0.02 0.01 44 1010.7
20210518131003 75 228 13.0 23.5 0.00 0.02 0.01 44 1010.7
20210518130859 75 249 6.1 23.5 0.00 0.02 0.01 45 1010.8
20210518130803 75 229 7.8 23.5 0.00 0.02 0.01 46 1010.8
20210518130702 75 236 8.7 23.5 0.00 0.02 0.01 45 1010.9
20210518130600 75 237 15.6 23.5 0.00 0.02 0.01 43 1010.8
20210518130502 74 229 17.4 23.5 0.00 0.02 0.01 45 1010.8
20210518130402 74 240 16.5 23.5 0.00 0.02 0.01 45 1010.8
20210518130301 74 247 13.0 19.1 0.00 0.02 0.01 47 1010.8
20210518130204 74 234 9.6 19.1 0.00 0.02 0.01 46 1010.8
20210518130114 74 253 14.8 19.1 0.00 0.02 0.01 46 1010.9
20210518130004 74 261 15.6 19.1 0.00 0.02 0.01 46 1010.8
20210518125902 74 238 11.3 19.1 0.00 0.38 0.01 47 1010.9
20210518125800 74 244 13.9 19.1 0.00 0.38 0.01 47 1010.9
20210518125700 73 234 13.0 19.1 0.00 0.38 0.01 46 1010.9
20210518125619 73 238 12.2 19.1 0.00 0.38 0.01 47 1010.9
20210518125502 73 232 7.0 19.1 0.00 0.38 0.01 47 1010.9
20210518125418 73 224 7.0 19.1 0.00 0.38 0.01 47 1010.9
20210518125313 73 235 10.4 19.1 0.00 0.38 0.01 48 1010.9
20210518125200 73 242 12.2 19.1 0.00 0.38 0.01 47 1010.9
20210518125059 73 225 10.4 19.1 0.00 0.38 0.01 47 1011.0
20210518125005 73 234 13.9 19.1 0.00 0.38 0.01 47 1011.0
20210518124901 73 215 14.8 19.1 0.00 0.38 0.01 47 1011.0
20210518124803 73 239 13.9 18.2 0.00 0.38 0.01 46 1011.0
20210518124704 74 218 13.9 18.2 0.00 0.38 0.01 46 1011.0
20210518124621 74 220 13.0 18.2 0.00 0.38 0.01 46 1011.0
20210518124501 74 223 9.6 18.2 0.00 0.38 0.01 47 1011.0
20210518124404 73 232 13.9 18.2 0.00 0.38 0.01 46 1011.0
20210518124301 73 234 13.9 19.1 0.00 0.38 0.01 45 1011.0
20210518124202 73 242 16.5 19.1 0.00 0.38 0.01 45 1011.0
20210518124103 73 229 13.9 19.1 0.00 0.38 0.01 44 1011.0
20210518124003 73 242 7.0 19.1 0.00 0.38 0.01 45 1011.0
20210518123902 73 210 9.6 19.1 0.00 0.38 0.01 46 1011.0
20210518123804 73 212 13.0 19.1 0.00 0.38 0.01 46 1011.0
20210518123721 73 207 7.8 21.7 0.00 0.38 0.01 47 1011.0
20210518123620 73 234 12.2 21.7 0.00 0.38 0.01 48 1011.1
20210518123504 73 254 13.0 21.7 0.00 0.38 0.01 46 1011.0
20210518123402 73 235 13.9 21.7 0.00 0.38 0.01 46 1011.0
20210518123259 73 232 13.0 21.7 0.00 0.38 0.01 46 1011.0
20210518123220 73 234 13.0 21.7 0.00 0.38 0.01 48 1011.0
20210518123100 73 232 8.7 21.7 0.00 0.38 0.01 48 1011.1
20210518123002 73 203 8.7 21.7 0.00 0.38 0.01 48 1011.1
20210518122902 73 233 6.1 21.7 0.00 0.38 0.01 47 1011.1
20210518122759 73 243 12.2 21.7 0.00 0.38 0.01 47 1011.2
20210518122702 73 232 17.4 21.7 0.00 0.38 0.01 47 1011.2
20210518122602 73 225 19.1 20.9 0.00 0.38 0.01 44 1011.3
20210518122500 73 223 14.8 21.7 0.00 0.38 0.01 47 1011.2
20210518122401 74 228 13.9 21.7 0.00 0.38 0.01 45 1011.2
20210518122305 74 234 16.5 21.7 0.00 0.38 0.01 45 1011.2
20210518122159 74 229 15.6 21.7 0.00 0.38 0.01 47 1011.2
20210518122101 74 216 13.9 21.7 0.00 0.38 0.01 48 1011.2
20210518122006 74 207 10.4 21.7 0.00 0.38 0.01 46 1011.2
20210518121900 74 236 10.4 20.9 0.00 0.38 0.01 46 1011.2
20210518121802 74 241 7.0 20.9 0.00 0.38 0.01 45 1011.2
20210518121722 74 235 11.3 20.9 0.00 0.38 0.01 45 1011.2
20210518121600 74 231 8.7 20.9 0.00 0.38 0.01 45 1011.2
20210518121502 74 236 8.7 20.9 0.00 0.38 0.01 46 1011.2
20210518121404 74 230 13.9 20.9 0.00 0.38 0.01 46 1011.2
20210518121302 74 228 13.0 20.9 0.00 0.38 0.01 45 1011.2
20210518121159 74 242 14.8 20.9 0.00 0.38 0.01 46 1011.2
20210518121102 74 245 13.9 19.1 0.00 0.38 0.01 48 1011.2
20210518121011 74 238 17.4 19.1 0.00 0.38 0.01 47 1011.2
20210518120902 74 214 15.6 19.1 0.00 0.38 0.01 45 1011.2
20210518120802 74 233 10.4 18.2 0.00 0.38 0.01 45 1011.3
20210518120700 74 242 8.7 19.1 0.00 0.38 0.01 47 1011.2
20210518120600 74 236 16.5 19.1 0.00 0.38 0.01 44 1011.2
20210518120505 74 230 13.9 19.1 0.00 0.38 0.01 45 1011.2
20210518120359 74 217 7.8 19.1 0.00 0.38 0.01 45 1011.2
20210518120259 74 239 7.0 19.1 0.00 0.38 0.01 45 1011.2
20210518120201 74 244 7.8 19.1 0.00 0.38 0.01 46 1011.1
20210518120144 74 239 5.2 19.1 0.00 0.38 0.01 47 1011.0
20210518120027 73 230 11.3 19.1 0.00 0.38 0.01 47 1011.0
20210518115900 73 222 10.4 19.1 0.00 0.38 0.01 49 1011.1
20210518115804 73 206 14.8 19.1 0.00 0.38 0.01 48 1011.1
20210518115722 73 223 17.4 19.1 0.00 0.38 0.01 46 1011.1
20210518115608 73 232 13.0 19.1 0.00 0.38 0.01 45 1011.1
20210518115504 73 233 16.5 19.1 0.00 0.38 0.01 47 1011.1
20210518115359 73 246 16.5 19.1 0.00 0.38 0.01 46 1011.1
20210518115304 73 215 14.8 19.1 0.00 0.38 0.01 47 1011.2
20210518115222 74 236 13.9 19.1 0.00 0.38 0.01 47 1011.2
20210518115102 74 232 7.0 19.1 0.00 0.38 0.01 48 1011.3
20210518115001 74 235 16.5 19.1 0.00 0.38 0.01 49 1011.3
20210518114903 74 248 11.3 19.1 0.00 0.38 0.01 48 1011.3
20210518114759 74 223 12.2 19.1 0.00 0.38 0.01 47 1011.3
20210518114701 73 207 11.3 19.1 0.00 0.38 0.01 46 1011.2
20210518114602 74 228 9.6 19.1 0.00 0.38 0.01 47 1011.3
20210518114501 74 215 13.9 19.1 0.00 0.38 0.01 47 1011.3
20210518114401 74 241 16.5 19.1 0.00 0.38 0.01 46 1011.3
20210518114322 74 248 6.1 19.1 0.00 0.38 0.01 46 1011.3
20210518114159 73 214 10.4 19.1 0.00 0.38 0.01 48 1011.2
20210518114100 73 233 13.0 19.1 0.00 0.38 0.01 49 1011.2
20210518114006 73 220 16.5 19.1 0.00 0.38 0.01 48 1011.2
20210518113900 73 223 13.0 19.1 0.00 0.38 0.01 50 1011.2
20210518113803 73 252 9.6 19.1 0.00 0.38 0.01 48 1011.3
20210518113704 73 227 11.3 19.1 0.00 0.38 0.01 46 1011.3
20210518113601 73 222 13.9 19.1 0.00 0.38 0.01 46 1011.4
20210518113517 73 234 17.4 18.2 0.00 0.38 0.01 45 1011.4
20210518113404 73 217 7.0 18.2 0.00 0.38 0.01 47 1011.4
20210518113301 73 243 13.9 18.2 0.00 0.38 0.01 48 1011.3
20210518113201 73 209 14.8 18.2 0.00 0.38 0.01 49 1011.4
20210518113100 73 233 13.9 18.2 0.00 0.38 0.01 48 1011.4
20210518112902 73 219 7.8 18.2 0.00 0.38 0.01 48 1011.4
20210518112800 73 218 11.3 19.1 0.00 0.38 0.01 46 1011.4
20210518112700 73 227 8.7 19.1 0.00 0.38 0.01 47 1011.4
20210518112603 73 230 15.6 19.1 0.00 0.38 0.01 47 1011.4
20210518112500 73 229 7.8 19.1 0.00 0.38 0.01 49 1011.4
20210518112359 73 218 15.6 19.1 0.00 0.38 0.01 50 1011.5
20210518112306 73 232 11.3 19.1 0.00 0.38 0.01 50 1011.5
20210518112159 73 178 4.3 19.1 0.00 0.38 0.01 49 1011.5
20210518112100 73 204 5.2 19.1 0.00 0.38 0.01 49 1011.5
20210518112006 74 197 6.1 19.1 0.00 0.38 0.01 49 1011.5
20210518111921 74 217 13.9 19.1 0.00 0.38 0.01 50 1011.6
20210518111800 74 229 13.0 17.4 0.00 0.38 0.01 50 1011.6
20210518111702 74 221 7.8 17.4 0.00 0.38 0.01 48 1011.6
20210518111600 74 225 4.3 17.4 0.00 0.38 0.01 49 1011.6
20210518111500 74 219 8.7 17.4 0.00 0.38 0.01 49 1011.6
20210518111402 74 207 9.6 17.4 0.00 0.38 0.01 49 1011.6
20210518111300 73 218 12.2 17.4 0.00 0.38 0.01 49 1011.6
20210518111159 73 221 12.2 16.5 0.00 0.38 0.01 49 1011.7
20210518111122 73 251 13.0 16.5 0.00 0.38 0.01 48 1011.7
20210518111001 73 217 6.1 19.1 0.00 0.38 0.01 47 1011.6
20210518110900 73 184 7.8 19.1 0.00 0.38 0.01 47 1011.7
20210518110802 73 219 7.8 19.1 0.00 0.38 0.01 47 1011.6
20210518110700 73 202 6.1 19.1 0.00 0.38 0.01 49 1011.6
20210518110600 73 209 8.7 19.1 0.00 0.38 0.01 49 1011.6
20210518110502 73 210 9.6 19.1 0.00 0.38 0.01 53 1011.6
20210518110400 73 229 9.6 19.1 0.00 0.38 0.01 49 1011.6
20210518110300 73 238 9.6 19.1 0.00 0.38 0.01 48 1011.6
20210518110159 73 222 8.7 19.1 0.00 0.38 0.01 50 1011.6
20210518110127 73 234 12.2 18.2 0.00 0.38 0.01 50 1011.7
20210518110005 73 222 14.8 15.6 0.00 0.38 0.01 49 1011.7
20210518105907 73 207 11.3 15.6 0.00 0.38 0.01 50 1011.7
20210518105802 72 204 7.8 15.6 0.00 0.38 0.01 49 1011.7
20210518105700 72 221 9.6 17.4 0.00 0.38 0.01 50 1011.7
20210518105600 72 222 11.3 14.8 0.00 0.38 0.01 49 1011.7
20210518105503 72 232 7.0 17.4 0.00 0.38 0.01 49 1011.8
20210518105400 72 222 8.7 17.4 0.00 0.38 0.01 49 1011.8
20210518105300 72 234 8.7 20.0 0.00 0.38 0.01 50 1011.9
20210518105202 72 226 12.2 20.0 0.00 0.38 0.01 51 1011.9
20210518105059 72 233 16.5 20.0 0.00 0.38 0.01 51 1011.8
20210518105001 72 220 8.7 20.0 0.00 0.38 0.01 52 1011.8
20210518104903 72 242 5.2 20.0 0.00 0.38 0.01 52 1011.8
20210518104800 72 246 10.4 20.0 0.00 0.38 0.01 52 1011.8
20210518104700 72 246 9.6 20.0 0.00 0.38 0.01 51 1011.8
20210518104603 72 232 11.3 20.0 0.00 0.38 0.01 51 1011.8
20210518104501 72 225 14.8 20.0 0.00 0.38 0.01 54 1011.9
20210518104401 72 215 13.9 20.0 0.00 0.38 0.01 53 1011.8
20210518104303 72 234 14.8 20.0 0.00 0.38 0.01 51 1011.9
20210518104201 72 219 11.3 20.0 0.00 0.38 0.01 52 1011.9
20210518104100 72 248 9.6 20.0 0.00 0.38 0.01 51 1011.9
20210518104004 72 227 15.6 20.0 0.00 0.38 0.01 51 1011.9
20210518103900 72 217 15.6 20.0 0.00 0.38 0.01 51 1012.0
20210518103800 72 212 11.3 20.0 0.00 0.38 0.01 52 1012.0
20210518103503 72 199 9.6 16.5 0.00 0.38 0.01 52 1012.0
20210518103400 72 211 17.4 17.4 0.00 0.38 0.01 51 1012.0
20210518103302 72 214 8.7 16.5 0.00 0.38 0.01 51 1012.0
20210518103202 72 219 15.6 17.4 0.00 0.38 0.01 54 1012.0
20210518103102 72 233 10.4 17.4 0.00 0.38 0.01 57 1012.0
20210518103004 72 222 7.8 17.4 0.00 0.38 0.01 57 1012.0
20210518102904 72 232 13.9 17.4 0.00 0.38 0.01 55 1012.0
20210518102801 72 257 7.8 17.4 0.00 0.38 0.01 52 1012.0
20210518102659 72 242 7.8 17.4 0.00 0.38 0.01 53 1012.0
20210518102604 72 216 7.0 17.4 0.00 0.38 0.01 54 1012.0
20210518102500 72 223 9.6 17.4 0.00 0.38 0.01 53 1012.0
20210518102400 72 231 7.0 17.4 0.00 0.38 0.01 52 1012.0
20210518102305 72 240 14.8 17.4 0.00 0.38 0.01 53 1012.0
20210518102159 72 244 7.0 18.2 0.00 0.38 0.01 53 1012.0
20210518102102 72 266 12.2 18.2 0.00 0.38 0.01 53 1011.9
20210518102007 71 228 12.2 19.1 0.00 0.38 0.01 53 1011.9
20210518101902 71 223 7.8 19.1 0.00 0.38 0.01 52 1012.0
20210518101800 71 228 7.8 19.1 0.00 0.38 0.01 52 1012.0
20210518101703 72 223 7.8 19.1 0.00 0.38 0.01 52 1012.1
20210518101601 71 207 6.1 19.1 0.00 0.38 0.01 53 1012.1
20210518101500 71 219 7.8 19.1 0.00 0.38 0.01 53 1012.1
20210518101404 71 232 11.3 19.1 0.00 0.38 0.01 53 1012.1
20210518101300 71 227 13.9 19.1 0.00 0.38 0.01 54 1012.2
20210518101201 71 227 16.5 19.1 0.00 0.38 0.01 53 1012.2
20210518101102 71 228 13.0 19.1 0.00 0.38 0.01 53 1012.2
20210518101007 71 211 8.7 19.1 0.00 0.38 0.01 53 1012.2
20210518100901 71 215 12.2 19.1 0.00 0.38 0.01 54 1012.2
20210518100803 71 231 7.8 19.1 0.00 0.38 0.01 52 1012.2
20210518100700 71 192 7.8 19.1 0.00 0.38 0.01 53 1012.3
20210518100600 71 216 13.9 19.1 0.00 0.38 0.01 52 1012.2
20210518100502 71 218 10.4 19.1 0.00 0.38 0.01 53 1012.2
20210518100400 71 212 15.6 19.1 0.00 0.38 0.01 52 1012.2
20210518100302 71 222 14.8 18.2 0.00 0.38 0.01 54 1012.2
20210518100204 71 214 7.8 18.2 0.00 0.38 0.01 54 1012.2
20210518100112 71 208 13.9 18.2 0.00 0.38 0.01 53 1012.2
20210518100005 71 236 12.2 18.2 0.00 0.38 0.01 53 1012.2
20210518095904 71 211 7.8 18.2 0.00 0.38 0.01 52 1012.2
20210518095821 71 240 15.6 19.1 0.00 0.38 0.01 52 1012.2
20210518095659 71 221 14.8 19.1 0.00 0.38 0.01 54 1012.2
20210518095603 71 221 8.7 19.1 0.00 0.38 0.01 53 1012.2
20210518095502 71 236 8.7 19.1 0.00 0.38 0.01 53 1012.1
20210518095400 71 228 13.9 19.1 0.00 0.38 0.01 53 1012.1
20210518095305 71 240 8.7 19.1 0.00 0.38 0.01 53 1012.2
20210518095201 71 225 13.0 19.1 0.00 0.38 0.01 52 1012.2
20210518095101 71 223 13.9 19.1 0.00 0.38 0.01 54 1012.2
20210518095006 71 206 10.4 19.1 0.00 0.38 0.01 53 1012.2
20210518094900 71 232 11.3 19.1 0.00 0.38 0.01 53 1012.2
20210518094800 71 222 12.2 18.2 0.00 0.38 0.01 53 1012.2
20210518094704 72 209 11.3 15.6 0.00 0.38 0.01 54 1012.2
20210518094600 72 218 6.1 15.6 0.00 0.38 0.01 55 1012.2
20210518094522 72 230 10.4 15.6 0.00 0.38 0.01 55 1012.2
20210518094422 71 229 7.8 15.6 0.00 0.38 0.01 54 1012.2
20210518094300 71 188 5.2 17.4 0.00 0.38 0.01 54 1012.2
20210518094201 71 261 3.5 17.4 0.00 0.38 0.01 54 1012.2
20210518094104 72 227 8.7 17.4 0.00 0.38 0.01 53 1012.1
20210518094006 72 239 7.8 18.2 0.00 0.38 0.01 54 1012.1
20210518093859 71 226 6.1 18.2 0.00 0.38 0.01 56 1012.1
20210518093802 71 230 13.9 18.2 0.00 0.38 0.01 55 1012.1
20210518093700 71 215 10.4 18.2 0.00 0.38 0.01 55 1012.1
20210518093600 71 227 10.4 18.2 0.00 0.38 0.01 53 1012.1
20210518093504 71 225 13.9 18.2 0.00 0.38 0.01 53 1012.1
20210518093421 71 210 11.3 19.1 0.00 0.38 0.01 53 1012.1
20210518093300 71 254 10.4 19.1 0.00 0.38 0.01 58 1012.1
20210518093202 71 224 13.9 19.1 0.00 0.38 0.01 55 1012.1
20210518093101 71 219 10.4 19.1 0.00 0.38 0.01 55 1012.1
20210518093001 71 234 13.9 19.1 0.00 0.38 0.01 54 1012.1
20210518092903 71 225 10.4 19.1 0.00 0.38 0.01 54 1012.0
20210518092759 70 225 14.8 19.1 0.00 0.38 0.01 55 1012.0
20210518092702 70 172 11.3 19.1 0.00 0.38 0.01 54 1012.0
20210518092603 70 217 14.8 19.1 0.00 0.38 0.01 55 1012.0
20210518092500 70 221 13.9 19.1 0.00 0.38 0.01 54 1012.0
20210518092400 70 237 18.2 21.7 0.00 0.38 0.01 53 1012.0
20210518092305 70 241 10.4 21.7 0.00 0.38 0.01 55 1012.0
20210518092200 70 224 16.5 21.7 0.00 0.38 0.01 55 1012.0
20210518092100 70 223 13.9 21.7 0.00 0.38 0.01 56 1012.0
20210518092004 70 221 13.0 21.7 0.00 0.38 0.01 56 1012.0
20210518091900 70 215 9.6 21.7 0.00 0.38 0.01 56 1012.0
20210518091820 70 229 13.0 21.7 0.00 0.38 0.01 54 1012.0
20210518091703 70 232 12.2 21.7 0.00 0.38 0.01 55 1012.0
20210518091601 70 215 10.4 21.7 0.00 0.38 0.01 55 1012.0
20210518091500 71 215 10.4 21.7 0.00 0.38 0.01 55 1012.1
20210518091405 71 215 13.0 17.4 0.00 0.38 0.01 58 1012.1
20210518091302 71 135 7.0 15.6 0.00 0.38 0.01 57 1012.0
20210518091201 71 190 13.9 15.6 0.00 0.38 0.01 57 1012.0
20210518091105 71 240 14.8 17.4 0.00 0.38 0.01 55 1012.0
20210518091001 71 251 11.3 17.4 0.00 0.38 0.01 56 1011.9
20210518090901 71 242 13.0 17.4 0.00 0.38 0.01 56 1011.9
20210518090802 71 233 9.6 17.4 0.00 0.38 0.01 57 1011.9
20210518090721 71 238 6.1 18.2 0.00 0.38 0.01 59 1011.9
20210518090621 71 238 11.3 18.2 0.00 0.38 0.01 58 1011.8
20210518090504 71 236 9.6 18.2 0.00 0.38 0.01 56 1011.8
20210518090421 71 246 12.2 18.2 0.00 0.38 0.01 56 1011.8
20210518090300 71 238 15.6 18.2 0.00 0.38 0.01 56 1011.8
20210518090203 71 223 9.6 18.2 0.00 0.38 0.01 55 1011.8
20210518090112 71 223 14.8 18.2 0.00 0.38 0.01 57 1011.8
20210518090005 71 192 10.4 18.2 0.00 0.38 0.01 57 1011.8
20210518085903 71 219 9.6 18.2 0.00 0.38 0.01 57 1011.9
20210518085800 71 234 14.8 18.2 0.00 0.38 0.01 57 1011.8
20210518085701 70 225 12.2 18.2 0.00 0.38 0.01 56 1011.9
20210518085602 70 236 11.3 16.5 0.00 0.38 0.01 57 1011.8
20210518085502 70 231 14.8 19.1 0.00 0.38 0.01 57 1011.8
20210518085400 70 240 7.8 19.1 0.00 0.38 0.01 56 1011.8
20210518085306 70 224 12.2 19.1 0.00 0.38 0.01 57 1011.8
20210518085159 70 246 12.2 19.1 0.00 0.38 0.01 57 1011.8
20210518085101 70 221 13.0 19.1 0.00 0.38 0.01 57 1011.8
20210518085007 70 219 7.0 19.1 0.00 0.38 0.01 58 1011.8
20210518084902 70 226 11.3 19.1 0.00 0.38 0.01 58 1011.8
20210518084801 70 234 9.6 19.1 0.00 0.38 0.01 57 1011.9
20210518084704 70 221 10.4 19.1 0.00 0.38 0.01 57 1011.9
20210518084601 70 217 11.3 19.1 0.00 0.38 0.01 57 1011.9
20210518084503 70 214 15.6 19.1 0.00 0.38 0.01 57 1011.9
20210518084403 70 243 10.4 19.1 0.00 0.38 0.01 57 1011.9
20210518084300 70 236 14.8 19.1 0.00 0.38 0.01 56 1011.8
20210518084201 70 238 13.0 19.1 0.00 0.38 0.01 57 1011.8
20210518084104 70 215 10.4 19.1 0.00 0.38 0.01 57 1011.9
20210518084005 70 231 8.7 19.1 0.00 0.38 0.01 58 1011.9
20210518083900 70 227 11.3 19.1 0.00 0.38 0.01 59 1011.9
20210518083804 70 236 11.3 15.6 0.00 0.38 0.01 59 1011.9
20210518083701 70 235 8.7 15.6 0.00 0.38 0.01 58 1011.9
20210518083601 69 232 12.2 16.5 0.00 0.38 0.01 58 1011.9
20210518083503 69 234 13.0 16.5 0.00 0.38 0.01 59 1011.9
20210518083401 69 235 9.6 16.5 0.00 0.38 0.01 60 1011.9
20210518083302 69 215 5.2 16.5 0.00 0.38 0.01 59 1011.9
20210518083203 69 246 14.8 19.1 0.00 0.38 0.01 58 1011.9
20210518083101 69 229 10.4 19.1 0.00 0.38 0.01 57 1011.9
20210518083004 69 232 9.6 19.1 0.00 0.38 0.01 57 1011.9
20210518082903 69 228 6.1 19.1 0.00 0.38 0.01 57 1011.9
20210518082802 69 224 7.8 19.1 0.00 0.38 0.01 57 1011.9
20210518082700 69 223 9.6 19.1 0.00 0.38 0.01 58 1011.9
20210518082602 69 201 9.6 19.1 0.00 0.38 0.01 58 1011.9
20210518082501 69 205 13.9 19.1 0.00 0.38 0.01 57 1011.9
20210518082401 69 215 13.0 19.1 0.00 0.38 0.01 58 1011.8
20210518082305 69 192 7.0 19.1 0.00 0.38 0.01 57 1011.9
20210518082202 68 227 17.4 18.2 0.00 0.38 0.01 57 1011.9
20210518082101 68 243 10.4 16.5 0.00 0.38 0.01 58 1012.0
20210518082006 68 225 9.6 16.5 0.00 0.38 0.01 58 1012.0
20210518081901 68 218 13.0 19.1 0.00 0.38 0.01 58 1012.0
20210518081801 68 218 13.0 19.1 0.00 0.38 0.01 58 1012.0
20210518081703 68 200 10.4 19.1 0.00 0.38 0.01 58 1012.0
20210518081601 68 223 11.3 19.1 0.00 0.38 0.01 58 1012.0
20210518081501 68 213 14.8 19.1 0.00 0.38 0.01 58 1012.1
20210518081403 68 213 16.5 19.1 0.00 0.38 0.01 58 1012.1
20210518081301 68 225 9.6 20.0 0.00 0.38 0.01 58 1012.1
20210518081202 68 221 8.7 20.0 0.00 0.38 0.01 58 1012.1
20210518081102 68 233 17.4 20.0 0.00 0.38 0.01 59 1012.1
20210518081030 68 225 13.9 20.0 0.00 0.38 0.01 59 1012.1
20210518080900 68 226 11.3 20.0 0.00 0.38 0.01 60 1012.1
20210518080803 68 243 9.6 20.0 0.00 0.38 0.01 60 1012.1
20210518080701 68 229 12.2 20.0 0.00 0.38 0.01 60 1012.1
20210518080601 68 224 12.2 20.0 0.00 0.38 0.01 60 1012.1
20210518080503 68 225 7.8 20.0 0.00 0.38 0.01 60 1012.1
20210518080401 68 224 8.7 20.0 0.00 0.38 0.01 60 1012.1
20210518080300 68 230 14.8 18.2 0.00 0.38 0.01 60 1012.1
20210518080221 68 198 10.4 18.2 0.00 0.38 0.01 60 1012.1
20210518080112 68 241 12.2 18.2 0.00 0.38 0.01 60 1012.2
20210518080004 68 236 11.3 18.2 0.00 0.38 0.01 60 1012.2
20210518075903 68 233 13.0 18.2 0.00 0.38 0.01 60 1012.2
20210518075800 68 190 8.7 18.2 0.00 0.38 0.01 60 1012.2
20210518075702 68 215 10.4 18.2 0.00 0.38 0.01 60 1012.1
20210518075604 68 226 10.4 18.2 0.00 0.38 0.01 60 1012.1
20210518075502 68 193 13.0 18.2 0.00 0.38 0.01 60 1012.1
20210518075401 68 251 12.2 18.2 0.00 0.38 0.01 61 1012.2
20210518075305 68 229 13.0 18.2 0.00 0.38 0.01 60 1012.1
20210518075200 68 243 14.8 18.2 0.00 0.38 0.01 59 1012.2
20210518075100 68 236 12.2 20.9 0.00 0.38 0.01 61 1012.2
20210518075007 68 213 16.5 20.9 0.00 0.38 0.01 60 1012.2
20210518074921 68 224 13.0 20.9 0.00 0.38 0.01 60 1012.2
20210518074801 68 213 10.4 20.9 0.00 0.38 0.01 60 1012.2
20210518074703 68 219 12.2 20.9 0.00 0.38 0.01 59 1012.2
20210518074601 68 209 6.1 20.9 0.00 0.38 0.01 60 1012.2
20210518074503 68 239 7.8 20.9 0.00 0.38 0.01 60 1012.1
20210518074404 68 223 12.2 20.9 0.00 0.38 0.01 60 1012.1
20210518074301 68 193 7.0 20.9 0.00 0.38 0.01 60 1012.1
20210518074221 68 216 12.2 20.9 0.00 0.38 0.01 60 1012.1
20210518074103 68 219 20.9 21.7 0.00 0.38 0.01 59 1012.1
20210518074002 68 213 11.3 21.7 0.00 0.38 0.01 59 1012.0
20210518073901 68 239 9.6 21.7 0.00 0.38 0.01 60 1012.0
20210518073803 68 254 14.8 21.7 0.00 0.38 0.01 60 1012.0
20210518073701 68 227 17.4 21.7 0.00 0.38 0.01 60 1012.0
20210518073601 68 215 9.6 22.6 0.00 0.38 0.01 59 1012.0
20210518073503 68 223 14.8 22.6 0.00 0.38 0.01 60 1012.1
20210518073400 68 241 10.4 22.6 0.00 0.38 0.01 59 1012.0
20210518073301 67 232 17.4 22.6 0.00 0.38 0.01 58 1012.1
20210518073204 67 222 14.8 22.6 0.00 0.38 0.01 58 1012.0
20210518073102 67 244 15.6 22.6 0.00 0.38 0.01 59 1012.0
20210518073004 67 241 17.4 22.6 0.00 0.38 0.01 59 1011.9
20210518072903 67 202 13.9 22.6 0.00 0.38 0.01 60 1011.9
20210518072801 67 221 13.0 22.6 0.00 0.38 0.01 59 1011.9
20210518072700 67 229 18.2 22.6 0.00 0.38 0.01 58 1011.8
20210518072603 67 233 14.8 21.7 0.00 0.38 0.01 59 1011.8
20210518072504 67 221 20.0 21.7 0.00 0.38 0.01 59 1011.9
20210518072403 67 221 11.3 21.7 0.00 0.38 0.01 59 1011.8
20210518072305 67 213 13.9 21.7 0.00 0.38 0.01 59 1011.9
20210518072200 67 219 21.7 21.7 0.00 0.38 0.01 59 1011.9
20210518072123 67 224 17.4 20.9 0.00 0.38 0.01 59 1011.9
20210518072006 67 230 14.8 20.0 0.00 0.38 0.01 59 1011.9
20210518071901 67 224 16.5 19.1 0.00 0.38 0.01 59 1011.9
20210518071800 67 231 13.9 19.1 0.00 0.38 0.01 59 1011.9
20210518071703 67 244 11.3 19.1 0.00 0.38 0.01 59 1012.0
20210518071601 67 214 14.8 18.2 0.00 0.38 0.01 60 1011.9
20210518071501 67 227 12.2 17.4 0.00 0.38 0.01 60 1012.0
20210518071403 67 212 13.0 17.4 0.00 0.38 0.01 60 1011.9
20210518071301 67 227 7.8 17.4 0.00 0.38 0.01 59 1011.9
20210518071220 67 230 7.0 17.4 0.00 0.38 0.01 59 1011.9
20210518071105 67 234 12.2 17.4 0.00 0.38 0.01 60 1011.9
20210518071002 67 202 9.6 17.4 0.00 0.38 0.01 61 1011.9
20210518070901 67 209 13.9 17.4 0.00 0.38 0.01 60 1011.9
20210518070803 67 219 13.9 17.4 0.00 0.38 0.01 60 1011.9
20210518070700 67 230 10.4 16.5 0.00 0.38 0.01 60 1011.9
20210518070601 67 225 11.3 16.5 0.00 0.38 0.01 60 1011.9
20210518070503 67 236 7.0 16.5 0.00 0.38 0.01 60 1011.9
20210518070401 67 221 7.8 16.5 0.00 0.38 0.01 59 1011.9
20210518070321 67 235 12.2 16.5 0.00 0.38 0.01 59 1011.9
20210518070222 67 238 13.9 16.5 0.00 0.38 0.01 59 1011.9
20210518070112 67 235 12.2 16.5 0.00 0.38 0.01 60 1012.0
20210518070005 67 230 13.0 16.5 0.00 0.38 0.01 60 1012.0
20210518065903 67 234 7.8 16.5 0.00 0.38 0.01 60 1012.0
20210518065800 67 205 6.1 16.5 0.00 0.38 0.01 61 1011.9
20210518065702 66 211 10.4 15.6 0.00 0.38 0.01 61 1011.9
20210518065603 66 223 10.4 14.8 0.00 0.38 0.01 63 1011.9
20210518065502 66 229 10.4 14.8 0.00 0.38 0.01 63 1011.9
20210518065401 66 215 9.6 14.8 0.00 0.38 0.01 63 1011.9
20210518065305 66 211 11.3 14.8 0.00 0.38 0.01 63 1011.9
20210518065201 66 227 9.6 12.2 0.00 0.38 0.01 63 1011.9
20210518065101 66 207 7.0 9.6 0.00 0.38 0.01 64 1011.9
20210518065006 66 213 5.2 9.6 0.00 0.38 0.01 64 1011.9
20210518064859 66 219 3.5 9.6 0.00 0.38 0.01 64 1011.9
20210518064802 66 217 8.7 9.6 0.00 0.38 0.01 64 1011.9
20210518064703 66 240 9.6 9.6 0.00 0.38 0.01 64 1011.9
20210518064601 66 223 7.0 7.8 0.00 0.38 0.01 64 1011.9
20210518064502 66 251 1.7 3.5 0.00 0.38 0.01 65 1011.9
20210518064403 65 22 1.7 3.5 0.00 0.38 0.01 64 1011.9
20210518064300 65 22 1.7 3.5 0.00 0.38 0.01 64 1011.8
20210518064201 65 36 1.7 3.5 0.00 0.38 0.01 64 1011.8
20210518064102 65 44 2.6 6.1 0.00 0.38 0.01 64 1011.8
20210518064003 65 43 2.6 6.1 0.00 0.38 0.01 65 1011.9
20210518063900 65 43 0.9 6.1 0.00 0.38 0.01 64 1011.9
20210518063803 64 43 1.7 6.1 0.00 0.38 0.01 65 1011.9
20210518063702 64 63 1.7 6.1 0.00 0.38 0.01 65 1011.9
20210518063600 64 88 2.6 6.1 0.00 0.38 0.01 65 1011.9
20210518063504 64 125 1.7 6.1 0.00 0.38 0.01 66 1011.9
20210518063401 64 149 0.9 6.1 0.00 0.38 0.01 66 1011.9
20210518063301 64 148 3.5 6.1 0.00 0.38 0.01 67 1011.9
20210518063203 64 166 0.9 6.1 0.01 0.38 0.01 65 1011.9
20210518063102 64 148 2.6 6.1 0.01 0.38 0.01 65 1011.8
20210518063002 64 71 1.7 6.1 0.01 0.38 0.01 65 1011.8
20210518062903 64 360 1.7 6.1 0.01 0.38 0.01 65 1011.9
20210518062802 64 360 1.7 6.1 0.01 0.38 0.01 65 1011.8
20210518062702 64 246 0.0 6.1 0.01 0.38 0.01 65 1011.7
20210518062603 64 256 2.6 6.1 0.01 0.38 0.01 66 1011.7
20210518062501 64 23 0.9 6.1 0.01 0.38 0.01 66 1011.7
20210518062401 64 68 1.7 6.1 0.01 0.38 0.01 67 1011.7
20210518062306 64 67 2.6 6.1 0.01 0.38 0.01 68 1011.6
20210518062201 64 67 2.6 6.1 0.01 0.38 0.01 67 1011.6
20210518062101 64 66 3.5 6.1 0.01 0.38 0.01 67 1011.6
20210518062030 64 58 3.5 5.2 0.01 0.38 0.01 67 1011.6
20210518061901 64 22 0.9 7.0 0.01 0.38 0.01 67 1011.6
20210518061802 64 37 2.6 7.0 0.01 0.38 0.01 67 1011.6
20210518061702 64 326 2.6 7.0 0.01 0.38 0.01 67 1011.6
20210518061601 63 309 3.5 7.0 0.01 0.38 0.01 67 1011.6
20210518061501 63 19 1.7 7.0 0.01 0.38 0.01 66 1011.6
20210518061405 63 19 2.6 7.8 0.01 0.38 0.01 66 1011.6
20210518061301 63 53 3.5 7.8 0.01 0.38 0.01 65 1011.6
20210518061200 63 42 1.7 7.8 0.01 0.38 0.01 66 1011.6
20210518061104 63 48 1.7 7.8 0.01 0.38 0.01 66 1011.6
20210518061001 63 49 0.0 7.8 0.01 0.38 0.01 66 1011.6
20210518060900 63 88 6.1 7.8 0.01 0.38 0.01 66 1011.6
20210518060804 63 28 1.7 7.8 0.01 0.38 0.01 66 1011.6
20210518060702 63 70 1.7 8.7 0.01 0.38 0.01 66 1011.5
20210518060602 63 195 0.9 11.3 0.01 0.38 0.01 66 1011.6
20210518060504 63 216 3.5 11.3 0.01 0.38 0.01 66 1011.5
20210518060401 63 130 4.3 11.3 0.01 0.38 0.01 66 1011.5
20210518060321 63 216 0.9 12.2 0.01 0.38 0.01 66 1011.5
20210518060204 63 214 0.9 14.8 0.01 0.38 0.01 66 1011.5
20210518060111 63 196 2.6 14.8 0.01 0.38 0.01 66 1011.5
20210518060003 63 188 3.5 14.8 0.01 0.38 0.01 66 1011.5
20210518055907 63 217 7.8 14.8 0.01 0.38 0.01 66 1011.5
20210518055802 63 219 7.0 14.8 0.01 0.38 0.01 66 1011.4
20210518055700 63 217 6.1 14.8 0.01 0.38 0.01 67 1011.4
20210518055605 63 223 9.6 14.8 0.01 0.38 0.01 67 1011.4
20210518055501 62 215 6.1 14.8 0.01 0.38 0.01 67 1011.4
20210518055401 62 224 8.7 17.4 0.01 0.38 0.01 67 1011.4
20210518055304 62 217 11.3 17.4 0.01 0.38 0.01 67 1011.4
20210518055200 62 225 12.2 17.4 0.01 0.38 0.01 66 1011.4
20210518055102 62 206 7.0 17.4 0.01 0.38 0.01 67 1011.4
20210518055003 62 220 12.2 17.4 0.01 0.38 0.01 67 1011.4
20210518054901 62 222 9.6 17.4 0.01 0.38 0.01 66 1011.4
20210518054800 62 210 7.0 17.4 0.01 0.38 0.01 67 1011.4
20210518054703 62 226 7.8 17.4 0.01 0.38 0.01 67 1011.4
20210518054603 62 221 8.7 17.4 0.01 0.38 0.01 67 1011.4
20210518054504 62 219 7.8 17.4 0.01 0.38 0.01 67 1011.4
20210518054402 62 232 11.3 17.4 0.01 0.38 0.01 66 1011.3
20210518054300 62 227 6.1 17.4 0.01 0.38 0.01 66 1011.3
20210518054201 62 222 6.1 17.4 0.01 0.38 0.01 67 1011.3
20210518054103 62 234 12.2 17.4 0.01 0.38 0.01 67 1011.4
20210518054002 62 205 12.2 17.4 0.01 0.38 0.01 67 1011.4
20210518053901 62 205 6.1 17.4 0.01 0.38 0.01 67 1011.4
20210518053803 62 236 10.4 17.4 0.01 0.38 0.01 68 1011.4
20210518053700 61 224 16.5 17.4 0.01 0.38 0.01 68 1011.4
20210518053601 61 211 12.2 14.8 0.01 0.38 0.01 68 1011.5
20210518053503 61 223 6.1 13.9 0.01 0.38 0.01 68 1011.4
20210518053400 61 217 13.0 13.9 0.01 0.38 0.01 69 1011.4
20210518053301 61 213 7.8 13.9 0.00 0.37 0.00 70 1011.4
20210518053204 61 222 6.1 13.9 0.00 0.37 0.00 71 1011.4
20210518053117 61 231 8.7 13.9 0.00 0.37 0.00 71 1011.4
20210518053003 60 217 10.4 13.0 0.00 0.37 0.00 72 1011.3
20210518052903 60 225 11.3 13.0 0.00 0.37 0.00 72 1011.4
20210518052801 60 245 9.6 13.0 0.00 0.37 0.00 74 1011.4
20210518052702 60 225 9.6 13.0 0.00 0.37 0.00 74 1011.4
20210518052603 59 221 9.6 13.0 0.00 0.37 0.00 75 1011.3
20210518052521 59 228 7.8 13.0 0.00 0.37 0.00 76 1011.3
20210518052400 59 207 8.7 13.0 0.00 0.37 0.00 77 1011.3
20210518052305 58 227 8.7 13.0 0.00 0.37 0.00 78 1011.4
20210518052201 58 211 6.1 13.0 0.00 0.37 0.00 80 1011.4
20210518052100 57 228 10.4 13.0 0.00 0.37 0.00 80 1011.4
20210518052023 57 223 9.6 13.0 0.00 0.37 0.00 80 1011.4
20210518051900 57 212 7.0 11.3 0.00 0.37 0.00 82 1011.4
20210518051819 56 228 8.7 10.4 0.00 0.37 0.00 83 1011.4
20210518051721 56 213 3.5 10.4 0.00 0.37 0.00 83 1011.4
20210518051601 55 213 3.5 7.0 0.00 0.37 0.00 84 1011.4
20210518051459 55 229 2.6 5.2 0.00 0.37 0.00 84 1011.4
20210518051403 55 197 2.6 4.3 0.00 0.37 0.00 85 1011.4
20210518051301 54 255 3.5 3.5 0.00 0.37 0.00 85 1011.4
20210518051201 54 192 0.9 1.7 0.00 0.37 0.00 86 1011.3
20210518051103 53 194 0.9 1.7 0.00 0.37 0.00 86 1011.3
20210518051001 53 194 0.9 1.7 0.00 0.37 0.00 86 1011.3
20210518050901 53 195 1.7 1.7 0.00 0.37 0.00 86 1011.3
20210518050805 52 194 0.9 2.6 0.00 0.37 0.00 87 1011.2
20210518050701 52 195 0.0 2.6 0.00 0.37 0.00 87 1011.3
20210518050601 51 198 0.0 2.6 0.00 0.37 0.00 87 1011.3
20210518050503 51 198 0.0 2.6 0.00 0.37 0.00 86 1011.2
20210518050400 51 198 0.0 2.6 0.00 0.37 0.00 86 1011.3
20210518050300 50 198 0.0 2.6 0.00 0.37 0.00 86 1011.3
20210518050200 50 199 0.0 3.5 0.00 0.37 0.00 86 1011.3
20210518050116 50 199 0.9 3.5 0.00 0.37 0.00 85 1011.3
20210518050004 50 199 0.0 3.5 0.00 0.37 0.00 85 1011.3
20210518045901 50 199 1.7 3.5 0.00 0.37 0.00 85 1011.3
20210518045802 50 199 0.9 3.5 0.00 0.37 0.00 85 1011.3
20210518045700 50 205 0.9 3.5 0.00 0.37 0.00 85 1011.2
20210518045602 50 204 0.9 3.5 0.00 0.37 0.00 85 1011.3
20210518045504 50 205 0.9 3.5 0.00 0.37 0.00 85 1011.2
20210518045401 49 207 0.9 3.5 0.00 0.37 0.00 85 1011.2
20210518045305 49 207 2.6 3.5 0.00 0.37 0.00 85 1011.2
20210518045201 49 205 2.6 3.5 0.00 0.37 0.00 85 1011.2
20210518045000 49 205 1.7 4.3 0.00 0.37 0.00 85 1011.1
20210518044900 49 202 0.9 4.3 0.00 0.37 0.00 85 1011.0
20210518044802 49 202 0.9 4.3 0.00 0.37 0.00 85 1011.0
20210518044701 49 200 0.0 4.3 0.00 0.37 0.00 85 1010.9
20210518044600 49 198 0.9 4.3 0.00 0.37 0.00 85 1010.9
20210518044502 48 197 0.9 4.3 0.00 0.37 0.00 85 1010.9
20210518044418 48 196 1.7 4.3 0.00 0.37 0.00 84 1010.9
20210518044300 48 196 2.6 4.3 0.00 0.37 0.00 84 1011.0
20210518044203 48 195 0.9 4.3 0.00 0.37 0.00 84 1011.0
20210518044101 48 192 1.7 4.3 0.00 0.37 0.00 84 1011.1
20210518044002 48 192 3.5 4.3 0.00 0.37 0.00 84 1011.0
20210518043902 48 191 0.0 2.6 0.00 0.37 0.00 84 1011.0
20210518043800 48 198 0.0 2.6 0.00 0.37 0.00 84 1011.0
20210518043700 48 192 0.9 2.6 0.00 0.37 0.00 84 1011.0
20210518043602 48 197 0.0 2.6 0.00 0.37 0.00 84 1011.0
20210518043500 48 199 0.0 2.6 0.00 0.37 0.00 84 1011.0
20210518043401 48 200 0.0 2.6 0.00 0.37 0.00 84 1010.9
20210518043302 48 200 0.0 2.6 0.00 0.37 0.00 83 1010.9
20210518043201 48 200 0.9 2.6 0.00 0.37 0.00 83 1010.9
20210518043100 48 219 0.9 2.6 0.00 0.37 0.00 83 1010.9
20210518043007 48 221 0.0 2.6 0.00 0.37 0.00 83 1010.9
20210518042901 48 221 0.0 3.5 0.00 0.37 0.00 83 1011.0
20210518042759 48 221 0.0 3.5 0.00 0.37 0.00 83 1011.0
20210518042702 48 219 0.0 3.5 0.00 0.37 0.00 83 1011.0
20210518042600 48 220 0.9 3.5 0.00 0.37 0.00 83 1011.0
20210518042501 48 224 1.7 4.3 0.00 0.37 0.00 83 1011.0
20210518042403 48 224 0.0 4.3 0.00 0.37 0.00 83 1011.0
20210518042301 48 215 1.7 4.3 0.00 0.37 0.00 87 1011.1
20210518042200 48 215 0.0 4.3 0.00 0.37 0.00 83 1011.1
20210518042102 48 215 0.9 4.3 0.00 0.37 0.00 87 1011.1
20210518042001 48 215 1.7 5.2 0.00 0.37 0.00 83 1011.1
20210518041900 48 215 2.6 5.2 0.00 0.37 0.00 83 1011.0
20210518041807 48 215 0.0 5.2 0.00 0.37 0.00 83 1011.0
20210518041700 48 215 0.0 5.2 0.00 0.37 0.00 83 1010.9
20210518041601 48 217 1.7 5.2 0.00 0.37 0.00 83 1011.0
20210518041503 48 210 2.6 5.2 0.00 0.37 0.00 83 1011.0
20210518041400 48 209 0.0 5.2 0.00 0.37 0.00 83 1011.0
20210518041300 48 209 0.9 5.2 0.00 0.37 0.00 82 1011.0
20210518041203 48 210 0.0 5.2 0.00 0.37 0.00 82 1011.0
20210518041100 48 213 1.7 5.2 0.00 0.37 0.00 82 1011.0
20210518041000 48 215 5.2 5.2 0.00 0.37 0.00 82 1011.0
20210518040902 48 214 3.5 5.2 0.00 0.37 0.00 82 1011.0
20210518040820 48 208 2.6 5.2 0.00 0.37 0.00 82 1011.0
20210518040700 48 207 2.6 5.2 0.00 0.37 0.00 82 1011.0
20210518040603 48 211 0.0 5.2 0.00 0.37 0.00 82 1010.9
20210518040501 48 213 1.7 5.2 0.00 0.37 0.00 82 1011.0
20210518040400 48 178 2.6 2.6 0.00 0.37 0.00 82 1011.0
20210518040302 48 173 0.9 1.7 0.00 0.37 0.00 82 1011.0
20210518040200 48 173 0.9 1.7 0.00 0.37 0.00 82 1011.0
20210518040110 48 174 0.9 2.6 0.00 0.37 0.00 82 1010.9
20210518040007 48 175 1.7 2.6 0.00 0.37 0.00 82 1010.9
20210518035900 48 174 0.9 2.6 0.00 0.37 0.00 82 1010.9
20210518035801 48 175 0.0 2.6 0.00 0.37 0.00 82 1010.9
20210518035702 48 175 0.0 2.6 0.00 0.37 0.00 82 1010.9
20210518035600 48 175 0.0 2.6 0.00 0.37 0.00 81 1010.9
20210518035500 48 175 0.0 2.6 0.00 0.37 0.00 81 1011.0
20210518035402 48 176 0.0 2.6 0.00 0.37 0.00 81 1010.9
20210518035300 48 177 0.9 2.6 0.00 0.37 0.00 81 1011.0
20210518035200 48 176 0.0 2.6 0.00 0.37 0.00 81 1010.9
20210518035102 48 176 2.6 2.6 0.00 0.37 0.00 81 1010.9
20210518035001 48 163 0.9 1.7 0.00 0.37 0.00 81 1010.9
20210518034901 48 162 0.0 1.7 0.00 0.37 0.00 81 1010.9
20210518034821 48 162 0.9 1.7 0.00 0.37 0.00 80 1010.9
20210518034700 48 162 0.0 3.5 0.00 0.37 0.00 80 1010.8
20210518034600 48 161 0.9 3.5 0.00 0.37 0.00 80 1010.8
20210518034502 48 157 0.0 3.5 0.00 0.37 0.00 80 1010.8
20210518034401 48 157 0.0 3.5 0.00 0.37 0.00 79 1010.8
20210518034259 48 157 0.0 3.5 0.00 0.37 0.00 79 1010.8
20210518034203 48 160 0.0 3.5 0.00 0.37 0.00 79 1010.8
20210518034101 49 160 0.0 3.5 0.00 0.37 0.00 79 1010.8
20210518034001 49 155 0.0 3.5 0.00 0.37 0.00 79 1010.8
20210518033902 49 150 0.9 3.5 0.00 0.37 0.00 79 1010.8
20210518033800 49 146 0.0 3.5 0.00 0.37 0.00 78 1010.9
20210518033700 49 113 3.5 3.5 0.00 0.37 0.00 79 1010.8
20210518033602 49 63 0.0 1.7 0.00 0.37 0.00 78 1010.9
20210518033500 49 63 0.0 2.6 0.00 0.37 0.00 78 1010.9
20210518033401 49 63 0.9 3.5 0.00 0.37 0.00 78 1010.9
20210518033307 50 61 0.9 3.5 0.00 0.37 0.00 78 1010.9
20210518033200 50 61 0.9 3.5 0.00 0.37 0.00 78 1010.9
20210518033100 50 61 1.7 3.5 0.00 0.37 0.00 78 1010.9
20210518033006 50 62 0.9 4.3 0.00 0.37 0.00 78 1010.9
20210518032901 50 67 0.0 4.3 0.00 0.37 0.00 78 1010.9
20210518032800 50 69 0.0 4.3 0.00 0.37 0.00 78 1010.9
20210518032702 50 69 0.9 4.3 0.00 0.37 0.00 78 1010.8
20210518032559 50 71 1.7 4.3 0.00 0.37 0.00 78 1010.9
20210518032500 50 73 2.6 4.3 0.00 0.37 0.00 77 1010.9
20210518032402 50 74 2.6 4.3 0.00 0.37 0.00 77 1010.9
20210518032300 50 74 2.6 4.3 0.00 0.37 0.00 77 1010.9
20210518032200 50 74 2.6 4.3 0.00 0.37 0.00 77 1010.9
20210518032102 50 74 3.5 4.3 0.00 0.37 0.00 77 1010.9
20210518032001 50 74 4.3 4.3 0.00 0.37 0.00 77 1010.9
20210518031900 50 74 3.5 4.3 0.00 0.37 0.00 77 1010.9
20210518031802 50 78 3.5 5.2 0.00 0.37 0.00 77 1010.9
20210518031701 50 79 4.3 5.2 0.00 0.37 0.00 76 1010.8
20210518031600 50 89 4.3 5.2 0.00 0.37 0.00 76 1010.8
20210518031503 50 90 2.6 4.3 0.00 0.37 0.00 76 1010.7
20210518031400 50 88 2.6 4.3 0.00 0.37 0.00 76 1010.7
20210518031259 50 88 2.6 4.3 0.00 0.37 0.00 76 1010.7
20210518031203 50 111 1.7 4.3 0.00 0.37 0.00 75 1010.7
20210518031100 50 111 0.0 4.3 0.00 0.37 0.00 75 1010.7
20210518031002 51 110 0.0 4.3 0.00 0.37 0.00 75 1010.7
20210518030902 51 90 1.7 4.3 0.00 0.37 0.00 75 1010.6
20210518030800 51 26 1.7 5.2 0.00 0.37 0.00 75 1010.7
20210518030701 51 24 0.9 5.2 0.00 0.37 0.00 74 1010.6
20210518030602 51 24 0.9 5.2 0.00 0.37 0.00 74 1010.6
20210518030501 51 44 2.6 5.2 0.00 0.37 0.00 74 1010.6
20210518030400 51 45 3.5 5.2 0.00 0.37 0.00 74 1010.6
20210518030302 51 82 4.3 5.2 0.00 0.37 0.00 74 1010.6
20210518030200 51 59 2.6 5.2 0.00 0.37 0.00 74 1010.6
20210518030112 52 17 1.7 6.1 0.00 0.37 0.00 73 1010.6
20210518030007 52 17 2.6 6.1 0.00 0.37 0.00 73 1010.6
20210518025900 52 360 2.6 7.0 0.00 0.37 0.00 73 1010.5
20210518025759 52 5 2.6 7.0 0.00 0.37 0.00 72 1010.5
20210518025702 52 14 3.5 7.0 0.00 0.37 0.00 72 1010.5
20210518025601 52 5 2.6 7.0 0.00 0.37 0.00 72 1010.4
20210518025501 52 14 3.5 7.0 0.00 0.37 0.00 70 1010.4
20210518025402 52 19 3.5 7.0 0.00 0.37 0.00 70 1010.3
20210518025300 53 16 3.5 7.0 0.00 0.37 0.00 69 1010.3
20210518025200 53 51 3.5 7.0 0.00 0.37 0.00 68 1010.3
20210518025102 53 49 3.5 7.0 0.00 0.37 0.00 67 1010.3
20210518025004 54 53 4.3 7.0 0.00 0.37 0.00 65 1010.3
20210518024900 55 44 4.3 7.8 0.00 0.37 0.00 64 1010.3
20210518024802 55 57 4.3 6.1 0.00 0.37 0.00 63 1010.3
20210518024700 56 60 1.7 5.2 0.00 0.37 0.00 63 1010.3
20210518024600 56 40 1.7 6.1 0.00 0.37 0.00 62 1010.3
20210518024503 57 226 1.7 6.1 0.00 0.37 0.00 62 1010.2
20210518024359 57 226 0.0 6.1 0.00 0.37 0.00 62 1010.2
20210518024301 57 226 0.9 6.1 0.00 0.37 0.00 62 1010.2
20210518024202 57 224 4.3 7.8 0.00 0.37 0.00 62 1010.2
20210518024100 57 225 3.5 8.7 0.00 0.37 0.00 62 1010.1
20210518024031 57 222 3.5 8.7 0.00 0.37 0.00 62 1010.1
20210518023902 57 228 4.3 8.7 0.00 0.37 0.00 62 1010.1
20210518023801 57 225 4.3 8.7 0.00 0.37 0.00 63 1010.1
20210518023700 57 224 4.3 8.7 0.00 0.37 0.00 63 1010.1
20210518023605 57 220 3.5 8.7 0.00 0.37 0.00 63 1010.1
20210518023500 57 219 5.2 8.7 0.00 0.37 0.00 63 1010.1
20210518023400 57 230 5.2 8.7 0.00 0.37 0.00 63 1010.1
20210518023302 57 209 5.2 8.7 0.00 0.37 0.00 63 1010.1
20210518023200 57 217 7.0 8.7 0.00 0.37 0.00 63 1010.1
20210518023100 57 210 5.2 9.6 0.00 0.37 0.00 63 1010.1
20210518023006 57 217 6.1 9.6 0.00 0.37 0.00 63 1010.1
20210518022900 57 234 6.1 9.6 0.00 0.37 0.00 64 1010.1
20210518022800 57 227 7.0 9.6 0.00 0.37 0.00 64 1010.1
20210518022702 57 222 7.0 9.6 0.00 0.37 0.00 64 1010.1
20210518022600 57 215 7.8 8.7 0.00 0.37 0.00 64 1010.1
20210518022500 57 228 7.8 8.7 0.00 0.37 0.00 64 1010.1
20210518022402 57 228 5.2 8.7 0.00 0.37 0.00 64 1010.0
20210518022300 57 216 6.1 8.7 0.00 0.37 0.00 64 1010.1
20210518022200 57 221 7.0 8.7 0.00 0.37 0.00 64 1010.1
20210518022102 57 216 7.0 8.7 0.00 0.37 0.00 64 1010.0
20210518022029 57 221 7.8 8.7 0.00 0.37 0.00 64 1010.0
20210518021900 57 217 7.0 7.8 0.00 0.37 0.00 64 1010.1
20210518021802 57 224 7.0 8.7 0.00 0.37 0.00 64 1010.1
20210518021700 57 207 6.1 8.7 0.00 0.37 0.00 64 1010.1
20210518021600 57 217 7.8 8.7 0.00 0.37 0.00 64 1010.1
20210518021502 57 217 6.1 8.7 0.00 0.37 0.00 64 1010.1
20210518021400 57 224 6.1 8.7 0.00 0.37 0.00 65 1010.1
20210518021259 57 222 6.1 8.7 0.00 0.37 0.00 65 1010.0
20210518021202 57 221 5.2 8.7 0.00 0.37 0.00 65 1010.0
20210518021100 57 211 5.2 8.7 0.00 0.37 0.00 65 1010.0
20210518021002 57 219 7.8 8.7 0.00 0.37 0.00 66 1010.0
20210518020911 57 223 7.0 8.7 0.00 0.37 0.00 66 1010.0
20210518020759 57 214 7.0 8.7 0.00 0.37 0.00 67 1010.0
20210518020659 56 221 8.7 8.7 0.00 0.37 0.00 67 1010.0
20210518020603 56 217 7.0 8.7 0.00 0.37 0.00 67 1010.0
20210518020500 56 218 8.7 8.7 0.00 0.37 0.00 68 1010.0
20210518020359 56 217 5.2 7.8 0.00 0.37 0.00 68 1010.0
20210518020302 56 220 4.3 7.8 0.00 0.37 0.00 69 1010.0
20210518020201 56 219 5.2 7.8 0.00 0.37 0.00 70 1010.0
20210518020110 55 232 7.8 7.8 0.00 0.37 0.00 70 1010.0
20210518020005 55 216 5.2 7.0 0.00 0.37 0.00 70 1010.0
20210518015900 55 223 4.3 7.0 0.00 0.37 0.00 71 1010.0
20210518015800 55 229 5.2 7.0 0.00 0.37 0.00 71 1009.9
20210518015702 54 221 6.1 7.0 0.00 0.37 0.00 72 1009.9
20210518015600 54 232 5.2 7.0 0.00 0.37 0.00 73 1010.0
20210518015526 54 221 6.1 7.0 0.00 0.37 0.00 73 1010.0
20210518015402 53 223 3.5 7.0 0.00 0.37 0.00 73 1010.0
20210518015300 53 222 3.5 7.0 0.00 0.37 0.00 73 1010.0
20210518015200 53 223 4.3 7.0 0.00 0.37 0.00 73 1010.0
20210518015102 53 223 3.5 7.0 0.00 0.37 0.00 73 1009.9
20210518015001 53 224 4.3 7.0 0.00 0.37 0.00 73 1009.9
20210518014900 53 219 3.5 7.0 0.00 0.37 0.00 73 1010.0
20210518014802 53 227 3.5 7.0 0.00 0.37 0.00 73 1009.9
20210518014700 53 226 5.2 7.0 0.00 0.37 0.00 73 1009.9
20210518014600 53 217 4.3 7.0 0.00 0.37 0.00 73 1009.9
20210518014502 53 224 6.1 7.0 0.00 0.37 0.00 73 1010.0
20210518014400 53 227 5.2 7.0 0.00 0.37 0.00 72 1009.9
20210518014300 53 218 5.2 7.0 0.00 0.37 0.00 72 1009.9
20210518014222 53 218 5.2 7.0 0.00 0.37 0.00 72 1009.9
20210518014100 53 225 4.3 7.0 0.00 0.37 0.00 72 1009.8
20210518014000 53 219 5.2 7.0 0.00 0.37 0.00 72 1009.8
20210518013902 53 224 6.1 7.0 0.00 0.37 0.00 72 1009.9
20210518013801 54 208 4.3 7.0 0.00 0.37 0.00 71 1009.9
20210518013719 54 219 5.2 7.0 0.00 0.37 0.00 71 1009.9
20210518013602 54 225 3.5 6.1 0.00 0.37 0.00 71 1009.8
20210518013517 54 227 3.5 7.0 0.00 0.37 0.00 71 1009.8
20210518013400 54 211 3.5 7.0 0.00 0.37 0.00 71 1009.8
20210518013302 54 219 3.5 7.8 0.00 0.37 0.00 71 1009.7
20210518013200 54 221 5.2 7.8 0.00 0.37 0.00 71 1009.8
20210518013120 54 219 2.6 7.8 0.00 0.37 0.00 71 1009.8
20210518013025 54 234 3.5 7.8 0.00 0.37 0.00 71 1009.7
20210518012900 55 228 3.5 7.8 0.00 0.37 0.00 71 1009.7
20210518012803 55 226 3.5 7.8 0.00 0.37 0.00 71 1009.7
20210518012702 55 225 5.2 7.8 0.00 0.37 0.00 71 1009.6
20210518012600 55 227 4.3 7.8 0.00 0.37 0.00 71 1009.7
20210518012500 55 230 3.5 9.6 0.00 0.37 0.00 71 1009.6
20210518012402 55 227 4.3 9.6 0.00 0.37 0.00 71 1009.6
20210518012300 55 222 4.3 9.6 0.00 0.37 0.00 72 1009.6
20210518012200 55 222 7.0 9.6 0.00 0.37 0.00 72 1009.6
20210518012103 55 215 3.5 9.6 0.00 0.37 0.00 72 1009.5
20210518012000 55 219 6.1 9.6 0.00 0.37 0.00 72 1009.5
20210518011919 55 210 5.2 9.6 0.00 0.37 0.00 73 1009.5
20210518011802 55 225 4.3 9.6 0.00 0.37 0.00 73 1009.5
20210518011700 55 226 5.2 9.6 0.00 0.37 0.00 73 1009.5
20210518011600 54 212 6.1 9.6 0.00 0.37 0.00 73 1009.5
20210518011502 54 221 5.2 8.7 0.00 0.37 0.00 74 1009.5
20210518011359 54 221 5.2 8.7 0.00 0.37 0.00 74 1009.5
20210518011300 54 232 2.6 8.7 0.00 0.37 0.00 74 1009.4
20210518011202 54 219 7.8 8.7 0.00 0.37 0.00 74 1009.5
20210518011100 54 225 7.0 8.7 0.00 0.37 0.00 74 1009.4
20210518011000 54 222 4.3 8.7 0.00 0.37 0.00 75 1009.4
20210518010902 53 210 5.2 8.7 0.00 0.37 0.00 75 1009.4
20210518010800 53 219 6.1 8.7 0.00 0.37 0.00 75 1009.4
20210518010659 53 227 6.1 7.8 0.00 0.37 0.00 75 1009.4
20210518010602 53 215 5.2 7.8 0.00 0.37 0.00 75 1009.4
20210518010501 53 224 4.3 7.8 0.00 0.37 0.00 75 1009.4
20210518010400 53 226 4.3 7.8 0.00 0.37 0.00 75 1009.4
20210518010302 53 223 3.5 7.8 0.00 0.37 0.00 75 1009.3
20210518010200 53 221 5.2 7.8 0.00 0.37 0.00 75 1009.3
20210518010110 53 223 5.2 7.8 0.00 0.37 0.00 75 1009.4
20210518010005 53 219 4.3 7.8 0.00 0.37 0.00 75 1009.4
20210518005900 53 224 5.2 7.8 0.00 0.37 0.00 75 1009.4
20210518005800 53 216 4.3 7.8 0.00 0.37 0.00 75 1009.3
20210518005702 53 206 5.2 7.0 0.00 0.37 0.00 75 1009.4
20210518005600 53 217 3.5 7.0 0.00 0.37 0.00 75 1009.4
20210518005500 53 219 4.3 7.0 0.00 0.37 0.00 75 1009.3
20210518005402 53 224 5.2 7.0 0.00 0.37 0.00 75 1009.3
20210518005300 53 225 6.1 7.0 0.00 0.37 0.00 74 1009.3
20210518005200 53 210 3.5 7.0 0.00 0.37 0.00 74 1009.3
20210518005103 53 217 6.1 7.0 0.00 0.37 0.00 74 1009.2
20210518005000 53 227 4.3 7.0 0.00 0.37 0.00 74 1009.2
20210518004900 53 214 4.3 7.0 0.00 0.37 0.00 74 1009.2
20210518004802 53 211 4.3 7.0 0.00 0.37 0.00 73 1009.2
20210518004700 53 206 3.5 7.0 0.00 0.37 0.00 73 1009.2
20210518004600 53 215 2.6 7.0 0.00 0.37 0.00 73 1009.1
20210518004502 53 209 3.5 7.0 0.00 0.37 0.00 73 1009.2
20210518004420 53 194 3.5 7.0 0.00 0.37 0.00 73 1009.2
20210518004300 53 211 2.6 7.0 0.00 0.37 0.00 73 1009.1
20210518004202 53 223 5.2 7.0 0.00 0.37 0.00 73 1009.1
20210518004101 53 211 3.5 6.1 0.00 0.37 0.00 73 1009.0
20210518004000 53 216 3.5 6.1 0.00 0.37 0.00 73 1009.0
20210518003902 53 204 2.6 6.1 0.00 0.37 0.00 73 1008.9
20210518003759 53 219 3.5 6.1 0.00 0.37 0.00 73 1008.9
20210518003700 53 219 4.3 6.1 0.00 0.37 0.00 72 1008.9
20210518003602 53 204 2.6 6.1 0.00 0.37 0.00 72 1008.9
20210518003500 53 211 5.2 6.1 0.00 0.37 0.00 72 1008.9
20210518003420 53 211 2.6 6.1 0.00 0.37 0.00 72 1008.9
20210518003302 53 217 3.5 6.1 0.00 0.37 0.00 72 1008.9
20210518003159 53 217 2.6 6.1 0.00 0.37 0.00 72 1009.0
20210518003100 54 217 3.5 6.1 0.00 0.37 0.00 72 1009.0
20210518003002 54 209 1.7 6.1 0.00 0.37 0.00 72 1009.0
20210518002900 54 209 1.7 6.1 0.00 0.37 0.00 71 1009.1
20210518002800 54 208 3.5 6.1 0.00 0.37 0.00 71 1009.0
20210518002701 54 212 2.6 5.2 0.00 0.37 0.00 71 1009.1
20210518002600 54 217 2.6 5.2 0.00 0.37 0.00 71 1009.1
20210518002501 54 232 2.6 5.2 0.00 0.37 0.00 71 1009.1
20210518002402 54 210 2.6 5.2 0.00 0.37 0.00 71 1009.1
20210518002300 54 209 2.6 7.8 0.00 0.37 0.00 71 1009.1
20210518002200 54 200 2.6 7.8 0.00 0.37 0.00 71 1009.0
20210518002102 54 200 2.6 7.8 0.00 0.37 0.00 71 1009.1
20210518002000 54 207 2.6 7.8 0.00 0.37 0.00 71 1009.0
20210518001900 54 207 1.7 7.8 0.00 0.37 0.00 70 1009.1
20210518001802 55 205 2.6 7.8 0.00 0.37 0.00 70 1009.0
20210518001700 55 205 2.6 7.8 0.00 0.37 0.00 70 1009.0
20210518001600 55 197 0.9 7.8 0.00 0.37 0.00 70 1009.1
20210518001507 55 210 3.5 7.8 0.00 0.37 0.00 70 1009.1
20210518001400 55 216 3.5 7.8 0.00 0.37 0.00 70 1009.1
20210518001300 55 196 4.3 8.7 0.00 0.37 0.00 70 1009.1
20210518001202 55 213 3.5 8.7 0.00 0.37 0.00 70 1009.1
20210518001100 55 217 3.5 9.6 0.00 0.37 0.00 70 1009.1
20210518001000 55 219 3.5 9.6 0.00 0.37 0.00 70 1009.1
20210518000902 55 223 3.5 9.6 0.00 0.37 0.00 70 1009.1
20210518000800 55 207 1.7 9.6 0.00 0.37 0.00 70 1009.2
20210518000659 55 225 6.1 9.6 0.00 0.37 0.00 70 1009.1
20210518000602 55 234 5.2 9.6 0.00 0.37 0.00 70 1009.1
20210518000500 55 222 4.3 9.6 0.00 0.37 0.00 70 1009.1
20210518000400 55 219 4.3 9.6 0.00 0.37 0.00 70 1009.2
20210518000302 55 209 6.1 9.6 0.00 0.37 0.00 70 1009.2
20210518000200 55 224 6.1 9.6 0.00 0.37 0.00 70 1009.2
20210518000109 55 215 5.2 8.7 0.00 0.37 0.00 70 1009.2
20210518000008 55 216 7.0 8.7 0.00 0.37 0.00 70 1009.2
20210517235900 55 217 5.2 8.7 0.00 0.37 0.00 69 1009.3
20210517235800 55 211 6.1 8.7 0.00 0.37 0.00 69 1009.3
20210517235701 55 213 6.1 8.7 0.00 0.37 0.00 69 1009.3
20210517235600 55 222 7.0 8.7 0.00 0.37 0.00 69 1009.3
20210517235500 55 196 2.6 7.8 0.00 0.37 0.00 69 1009.3
20210517235402 55 196 2.6 7.8 0.00 0.37 0.00 69 1009.3
20210517235259 55 213 2.6 7.8 0.00 0.37 0.00 69 1009.3
20210517235200 56 203 3.5 7.8 0.00 0.37 0.00 69 1009.3
20210517235102 56 185 0.9 7.8 0.00 0.37 0.00 69 1009.3
20210517235000 56 216 3.5 7.8 0.00 0.37 0.00 69 1009.3
20210517234859 56 224 7.0 7.8 0.00 0.37 0.00 69 1009.3
20210517234802 56 211 5.2 7.8 0.00 0.37 0.00 69 1009.3
20210517234700 56 215 4.3 7.8 0.00 0.37 0.00 69 1009.3
20210517234600 56 221 4.3 6.1 0.00 0.37 0.00 69 1009.2
20210517234503 56 206 3.5 6.1 0.00 0.37 0.00 69 1009.3
20210517234400 56 213 3.5 6.1 0.00 0.37 0.00 69 1009.2
20210517234300 56 213 3.5 6.1 0.00 0.37 0.00 69 1009.2
20210517234201 56 215 4.3 7.0 0.00 0.37 0.00 69 1009.3
20210517234100 56 194 3.5 7.0 0.00 0.37 0.00 69 1009.3
20210517234003 56 231 6.1 7.0 0.00 0.37 0.00 69 1009.3
20210517233902 56 199 2.6 7.0 0.00 0.37 0.00 69 1009.3
20210517233800 56 199 1.7 7.0 0.00 0.37 0.00 68 1009.2
20210517233659 56 197 3.5 7.0 0.00 0.37 0.00 68 1009.3
20210517233602 56 213 3.5 7.0 0.00 0.37 0.00 68 1009.3
20210517233500 56 213 3.5 7.0 0.00 0.37 0.00 68 1009.2
20210517233400 56 209 3.5 7.0 0.00 0.37 0.00 68 1009.3
20210517233303 56 192 4.3 7.0 0.00 0.37 0.00 68 1009.3
20210517233200 56 217 7.0 7.0 0.00 0.37 0.00 68 1009.3
20210517233100 56 223 3.5 6.1 0.00 0.37 0.00 68 1009.3
20210517233004 56 205 5.2 6.1 0.00 0.37 0.00 68 1009.3
20210517232900 57 144 1.7 6.1 0.00 0.37 0.00 68 1009.3
20210517232800 57 202 4.3 6.1 0.00 0.37 0.00 67 1009.3
20210517232702 57 201 2.6 9.6 0.00 0.37 0.00 67 1009.3
20210517232600 57 209 3.5 9.6 0.00 0.37 0.00 67 1009.3
20210517232501 57 194 3.5 9.6 0.00 0.37 0.00 67 1009.3
20210517232402 57 196 1.7 9.6 0.00 0.37 0.00 67 1009.3
20210517232300 57 205 5.2 9.6 0.00 0.37 0.00 67 1009.3
20210517232200 57 201 6.1 9.6 0.00 0.37 0.00 67 1009.3
20210517232103 57 198 2.6 9.6 0.00 0.37 0.00 66 1009.3
20210517232004 57 198 1.7 9.6 0.00 0.37 0.00 66 1009.3
20210517231900 57 224 2.6 9.6 0.00 0.37 0.00 66 1009.2
20210517231802 58 193 3.5 9.6 0.00 0.37 0.00 66 1009.3
20210517231700 58 198 6.1 7.8 0.00 0.37 0.00 66 1009.3
20210517231600 58 208 3.5 7.8 0.00 0.37 0.00 66 1009.4
20210517231502 58 200 5.2 7.8 0.00 0.37 0.00 66 1009.4
20210517231400 58 188 3.5 6.1 0.00 0.37 0.00 66 1009.3
20210517231300 58 200 3.5 6.1 0.00 0.37 0.00 66 1009.3
20210517231202 58 201 2.6 6.1 0.00 0.37 0.00 65 1009.4
20210517231100 58 215 2.6 7.8 0.00 0.37 0.00 65 1009.3
20210517231029 58 211 3.5 7.8 0.00 0.37 0.00 65 1009.3
20210517230913 58 202 2.6 7.8 0.00 0.37 0.00 65 1009.4
20210517230800 58 215 4.3 7.8 0.00 0.37 0.00 65 1009.4
20210517230700 58 217 5.2 7.8 0.00 0.37 0.00 65 1009.4
20210517230602 59 209 4.3 7.8 0.00 0.37 0.00 65 1009.4
20210517230522 59 218 6.1 7.8 0.00 0.37 0.00 65 1009.4
20210517230400 59 210 3.5 7.8 0.00 0.37 0.00 65 1009.4
20210517230302 59 230 3.5 7.8 0.00 0.37 0.00 65 1009.5
20210517230200 59 199 6.1 7.8 0.00 0.37 0.00 65 1009.4
20210517230114 59 217 4.3 6.1 0.00 0.37 0.00 65 1009.5
20210517230008 59 220 4.3 6.1 0.00 0.37 0.00 65 1009.5
20210517225900 59 214 3.5 6.1 0.00 0.37 0.00 65 1009.4
20210517225800 59 204 2.6 6.1 0.00 0.37 0.00 65 1009.5
20210517225702 59 201 0.9 6.1 0.00 0.37 0.00 65 1009.5
20210517225600 59 222 1.7 7.8 0.00 0.37 0.00 65 1009.5
20210517225500 59 199 1.7 7.8 0.00 0.37 0.00 65 1009.5
20210517225402 59 200 1.7 8.7 0.00 0.37 0.00 65 1009.5
20210517225305 59 219 5.2 9.6 0.00 0.37 0.00 65 1009.5
20210517225159 59 190 4.3 9.6 0.00 0.37 0.00 65 1009.5
20210517225102 59 207 3.5 9.6 0.00 0.37 0.00 65 1009.5
20210517225002 59 213 5.2 9.6 0.00 0.37 0.00 65 1009.5
20210517224900 59 202 3.5 9.6 0.00 0.37 0.00 65 1009.5
20210517224802 59 213 4.3 9.6 0.00 0.37 0.00 65 1009.4
20210517224700 59 198 3.5 9.6 0.00 0.37 0.00 65 1009.5
20210517224601 59 204 5.2 9.6 0.00 0.37 0.00 65 1009.5
20210517224511 59 206 5.2 9.6 0.00 0.37 0.00 65 1009.5
20210517224400 59 181 5.2 9.6 0.00 0.37 0.00 65 1009.4
20210517224300 59 203 4.3 9.6 0.00 0.37 0.00 65 1009.4
20210517224221 59 182 4.3 9.6 0.00 0.37 0.00 65 1009.4
20210517224100 59 215 7.0 9.6 0.00 0.37 0.00 66 1009.4
20210517224011 59 210 4.3 9.6 0.00 0.37 0.00 66 1009.4
20210517223902 59 217 7.0 8.7 0.00 0.37 0.00 66 1009.4
20210517223822 59 217 8.7 8.7 0.00 0.37 0.00 66 1009.4
20210517223701 59 207 3.5 8.7 0.00 0.37 0.00 66 1009.4
20210517223602 59 210 4.3 8.7 0.00 0.37 0.00 66 1009.4
20210517223520 59 211 6.1 8.7 0.00 0.37 0.00 66 1009.4
20210517223401 59 214 4.3 8.7 0.00 0.37 0.00 66 1009.4
20210517223302 59 236 6.1 13.0 0.00 0.37 0.00 66 1009.4
20210517223159 59 214 2.6 13.0 0.00 0.37 0.00 66 1009.4
20210517223101 59 201 4.3 13.0 0.00 0.37 0.00 66 1009.4
20210517223005 59 208 5.2 13.0 0.00 0.37 0.00 65 1009.4
20210517222900 59 205 6.1 13.0 0.00 0.37 0.00 66 1009.4
20210517222759 59 211 8.7 13.0 0.00 0.37 0.00 66 1009.4
20210517222702 59 203 7.8 13.0 0.00 0.37 0.00 66 1009.4
20210517222600 59 225 8.7 13.0 0.00 0.37 0.00 66 1009.4
20210517222501 59 207 7.0 13.0 0.00 0.37 0.00 66 1009.4
20210517222402 59 214 6.1 13.0 0.00 0.37 0.00 66 1009.4
20210517222259 59 221 13.0 13.0 0.00 0.37 0.00 66 1009.4
20210517222200 59 217 7.0 8.7 0.00 0.37 0.00 66 1009.4
20210517222104 59 211 7.0 8.7 0.00 0.37 0.00 66 1009.4
20210517222002 59 223 7.0 8.7 0.00 0.37 0.00 66 1009.5
20210517221900 59 216 7.0 8.7 0.00 0.37 0.00 66 1009.4
20210517221802 59 207 6.1 8.7 0.00 0.37 0.00 66 1009.4
20210517221700 59 197 8.7 9.6 0.00 0.37 0.00 66 1009.4
20210517221600 59 206 6.1 9.6 0.00 0.37 0.00 66 1009.4
20210517221502 60 198 7.8 9.6 0.00 0.37 0.00 66 1009.4
20210517221400 60 211 6.1 8.7 0.00 0.37 0.00 66 1009.3
20210517221300 60 201 5.2 8.7 0.00 0.37 0.00 66 1009.3
20210517221202 60 217 7.0 8.7 0.00 0.37 0.00 67 1009.3
20210517221100 60 203 6.1 7.8 0.00 0.37 0.00 67 1009.3
20210517221001 60 205 6.1 7.8 0.00 0.37 0.00 67 1009.3
20210517220902 60 204 4.3 7.0 0.00 0.37 0.00 67 1009.3
20210517220800 60 207 5.2 7.0 0.00 0.37 0.00 67 1009.3
20210517220702 60 205 5.2 7.0 0.00 0.37 0.00 67 1009.3
20210517220602 60 204 4.3 9.6 0.00 0.37 0.00 67 1009.3
20210517220500 60 222 6.1 9.6 0.00 0.37 0.00 67 1009.3
20210517220402 60 200 4.3 9.6 0.00 0.37 0.00 67 1009.3
20210517220301 60 196 7.0 9.6 0.00 0.37 0.00 67 1009.3
20210517220201 60 202 6.1 9.6 0.00 0.37 0.00 67 1009.3
20210517220147 60 200 6.1 9.6 0.00 0.37 0.00 67 1009.3
20210517220032 60 196 6.1 9.6 0.00 0.37 0.00 67 1009.3
20210517215902 60 198 6.1 9.6 0.00 0.37 0.37 67 1009.2
20210517215802 60 211 6.1 9.6 0.00 0.37 0.37 67 1009.3
20210517215703 60 201 6.1 10.4 0.00 0.37 0.37 67 1009.3
20210517215600 60 211 6.1 10.4 0.00 0.37 0.37 67 1009.2
20210517215502 60 192 4.3 10.4 0.00 0.37 0.37 67 1009.3
20210517215402 60 207 6.1 10.4 0.00 0.37 0.37 67 1009.3
20210517215305 60 207 7.0 12.2 0.00 0.37 0.37 67 1009.3
20210517215203 60 217 6.1 12.2 0.00 0.37 0.37 67 1009.3
20210517215103 60 225 8.7 12.2 0.00 0.37 0.37 67 1009.3
20210517215002 60 206 9.6 12.2 0.00 0.37 0.37 67 1009.3
20210517214902 60 206 6.1 12.2 0.00 0.37 0.37 67 1009.3
20210517214804 60 212 7.8 12.2 0.00 0.37 0.37 67 1009.3
20210517214702 60 209 6.1 12.2 0.00 0.37 0.37 67 1009.3
20210517214603 60 205 6.1 12.2 0.00 0.37 0.37 67 1009.3
20210517214504 60 215 7.8 12.2 0.00 0.37 0.37 67 1009.3
20210517214402 60 212 7.0 12.2 0.00 0.37 0.37 67 1009.2
20210517214302 60 205 7.0 12.2 0.00 0.37 0.37 67 1009.3
20210517214203 60 207 7.8 12.2 0.00 0.37 0.37 67 1009.2
20210517214100 60 205 9.6 14.8 0.00 0.37 0.37 67 1009.2
20210517214003 60 211 7.8 14.8 0.00 0.37 0.37 67 1009.2
20210517213903 60 200 9.6 14.8 0.00 0.37 0.37 67 1009.2
20210517213802 60 224 11.3 14.8 0.00 0.37 0.37 67 1009.2
20210517213702 60 216 9.6 14.8 0.00 0.37 0.37 67 1009.2
20210517213604 60 203 8.7 14.8 0.00 0.37 0.37 67 1009.2
20210517213500 60 211 8.7 16.5 0.00 0.37 0.37 67 1009.1
20210517213402 60 215 8.7 16.5 0.00 0.37 0.37 67 1009.2
20210517213305 60 198 6.1 16.5 0.00 0.37 0.37 67 1009.2
20210517213208 60 210 7.8 16.5 0.00 0.37 0.37 67 1009.2
20210517213102 60 199 13.0 16.5 0.00 0.37 0.37 67 1009.2
20210517213005 60 208 8.7 16.5 0.00 0.37 0.37 66 1009.2
20210517212903 61 215 8.7 16.5 0.00 0.37 0.37 66 1009.2
20210517212801 61 218 7.0 16.5 0.00 0.37 0.37 66 1009.2
20210517212704 61 188 9.6 16.5 0.00 0.37 0.37 66 1009.2
20210517212633 61 198 11.3 16.5 0.00 0.37 0.37 66 1009.2
20210517212502 61 206 8.7 17.4 0.00 0.37 0.37 67 1009.2
20210517212404 61 213 11.3 17.4 0.00 0.37 0.37 66 1009.2
20210517212305 61 202 8.7 17.4 0.00 0.37 0.37 66 1009.2
20210517212201 61 192 7.0 17.4 0.00 0.37 0.37 66 1009.1
20210517212104 61 203 12.2 17.4 0.00 0.37 0.37 66 1009.1
20210517212004 61 207 7.0 17.4 0.00 0.37 0.37 66 1009.1
20210517211902 61 211 6.1 17.4 0.00 0.37 0.37 66 1009.2
20210517211804 61 198 5.2 17.4 0.00 0.37 0.37 66 1009.2
20210517211703 61 188 6.1 17.4 0.00 0.37 0.37 66 1009.2
20210517211601 61 207 11.3 17.4 0.00 0.37 0.37 66 1009.1
20210517211524 61 213 11.3 17.4 0.00 0.37 0.37 66 1009.1
20210517211402 61 201 8.7 17.4 0.00 0.37 0.37 66 1009.2
20210517211301 61 207 8.7 17.4 0.00 0.37 0.37 66 1009.2
20210517211204 61 187 7.8 17.4 0.00 0.37 0.37 66 1009.2
20210517211102 61 209 9.6 17.4 0.00 0.37 0.37 66 1009.2
20210517211002 61 204 15.6 17.4 0.00 0.37 0.37 66 1009.2
20210517210904 61 196 13.0 17.4 0.00 0.37 0.37 66 1009.3
20210517210803 61 207 10.4 17.4 0.00 0.37 0.37 66 1009.3
20210517210701 61 202 13.0 17.4 0.00 0.37 0.37 66 1009.3
20210517210603 61 211 7.8 17.4 0.00 0.37 0.37 66 1009.3
20210517210503 61 207 10.4 17.4 0.00 0.37 0.37 66 1009.2
20210517210401 61 217 10.4 17.4 0.00 0.37 0.37 66 1009.2
20210517210308 61 204 11.3 17.4 0.00 0.37 0.37 66 1009.3
20210517210204 61 209 12.2 17.4 0.00 0.37 0.37 66 1009.3
20210517210117 61 215 8.7 17.4 0.00 0.37 0.37 66 1009.3
20210517210011 61 205 11.3 17.4 0.00 0.37 0.37 66 1009.3
20210517205902 61 213 6.1 17.4 0.00 0.37 0.37 66 1009.3
20210517205802 61 227 12.2 15.6 0.00 0.37 0.37 67 1009.2
20210517205704 61 201 13.0 15.6 0.00 0.37 0.37 67 1009.2
20210517205603 61 253 9.6 15.6 0.00 0.37 0.37 67 1009.2
20210517205502 61 211 9.6 15.6 0.00 0.37 0.37 67 1009.2
20210517205403 61 210 9.6 15.6 0.00 0.37 0.37 67 1009.3
20210517205301 61 206 14.8 15.6 0.00 0.37 0.37 67 1009.3
20210517205202 61 201 6.1 17.4 0.00 0.37 0.37 67 1009.3
20210517205103 61 207 7.8 17.4 0.00 0.37 0.37 67 1009.2
20210517205025 61 204 10.4 17.4 0.00 0.37 0.37 67 1009.2
20210517204900 61 190 9.6 19.1 0.00 0.37 0.37 67 1009.2
20210517204803 61 215 11.3 19.1 0.00 0.37 0.37 67 1009.2
20210517204702 61 205 13.9 19.1 0.00 0.37 0.37 67 1009.1
20210517204602 61 211 6.1 19.1 0.00 0.37 0.37 67 1009.1
20210517204526 61 213 7.0 19.1 0.00 0.37 0.37 67 1009.1
20210517204403 61 211 7.0 19.1 0.00 0.37 0.37 67 1009.1
20210517204301 61 212 10.4 19.1 0.00 0.37 0.37 67 1009.1
20210517204203 61 219 13.9 19.1 0.00 0.37 0.37 67 1009.2
20210517204105 61 212 8.7 19.1 0.00 0.37 0.37 67 1009.2
20210517204005 61 205 7.0 19.1 0.00 0.37 0.37 67 1009.2
20210517203904 61 212 14.8 15.6 0.00 0.37 0.37 67 1009.2
20210517203802 61 194 11.3 14.8 0.00 0.37 0.37 67 1009.2
20210517203702 61 188 11.3 14.8 0.00 0.37 0.37 67 1009.2
20210517203604 61 190 8.7 15.6 0.00 0.37 0.37 67 1009.2
20210517203502 61 223 9.6 14.8 0.00 0.37 0.37 68 1009.2
20210517203421 61 197 9.6 14.8 0.00 0.37 0.37 68 1009.2
20210517203304 61 203 7.0 14.8 0.00 0.37 0.37 68 1009.1
20210517203202 61 212 13.9 14.8 0.00 0.37 0.37 68 1009.1
20210517203120 61 217 7.0 14.8 0.00 0.37 0.37 68 1009.1
20210517203005 61 209 12.2 14.8 0.00 0.37 0.37 68 1009.1
20210517202904 61 207 6.1 14.8 0.00 0.37 0.37 68 1009.1
20210517202802 61 214 9.6 14.8 0.00 0.37 0.37 68 1009.1
20210517202704 61 186 8.7 14.8 0.00 0.37 0.37 68 1009.1
20210517202603 61 213 8.7 14.8 0.00 0.37 0.37 68 1009.1
20210517202502 61 198 7.0 14.8 0.00 0.37 0.37 69 1009.1
20210517202404 61 203 7.8 14.8 0.00 0.37 0.37 69 1009.1
20210517202305 61 208 7.8 14.8 0.00 0.37 0.37 69 1009.1
20210517202202 61 228 13.9 15.6 0.00 0.37 0.37 68 1009.1
20210517202103 61 223 11.3 15.6 0.00 0.37 0.37 69 1009.1
20210517202005 61 215 10.4 15.6 0.00 0.37 0.37 69 1009.0
20210517201901 61 209 13.0 15.6 0.00 0.37 0.37 69 1009.0
20210517201803 61 146 7.8 15.6 0.00 0.37 0.37 69 1009.1
20210517201704 61 219 11.3 15.6 0.00 0.37 0.37 69 1009.0
20210517201602 61 205 8.7 15.6 0.00 0.37 0.37 69 1009.0
20210517201503 61 200 12.2 15.6 0.00 0.37 0.37 69 1008.9
20210517201402 61 214 7.8 15.6 0.00 0.37 0.37 69 1009.0
20210517201301 61 211 11.3 15.6 0.00 0.37 0.37 69 1009.0
20210517201210 61 209 9.6 16.5 0.00 0.37 0.37 69 1009.0
20210517201123 61 217 8.7 16.5 0.00 0.37 0.37 69 1008.9
20210517201003 61 202 7.0 14.8 0.00 0.37 0.37 69 1008.9
20210517200904 61 218 13.0 14.8 0.00 0.37 0.37 69 1008.9
20210517200802 61 207 11.3 14.8 0.00 0.37 0.37 69 1008.9
20210517200702 61 214 13.9 14.8 0.00 0.37 0.37 69 1008.9
20210517200603 61 198 7.8 13.9 0.00 0.37 0.37 69 1008.8
20210517200523 61 208 12.2 13.9 0.00 0.37 0.37 69 1008.8